Wetterdaten: aktuell Freitag, 04.12.2020 17:36
Datum Zeit Temp. A. Feuchte A. Luftdruck Regen Sonnenschein Regendauer ET UV Solar Taupunkt Windchill Windben Empfang
04.12.2020 17:36 5,7 C 83 % 987,2 hPa 0,0 l/m 0 min 0 min 0,000 mm 0,0 UV-I 0 W/m 3,0 C 2,3 C 17,7 km/h (3 Bft) 98 %
04.12.2020 17:34 5,7 C 84 % 987,2 hPa 0,0 l/m 0 min 0 min 0,000 mm 0,0 UV-I 0 W/m 3,2 C 2,7 C 17,7 km/h (3 Bft) 96 %
04.12.2020 17:32 5,7 C 84 % 987,2 hPa 0,0 l/m 0 min 0 min 0,000 mm 0,0 UV-I 0 W/m 3,2 C 5,2 C 11,3 km/h (2 Bft) 94 %
04.12.2020 17:30 5,7 C 84 % 987,2 hPa 0,0 l/m 0 min 0 min 0,000 mm 0,0 UV-I 0 W/m 3,2 C 5,7 C 9,7 km/h (2 Bft) 96 %
04.12.2020 17:28 5,8 C 83 % 987,2 hPa 0,0 l/m 0 min 0 min 0,000 mm 0,0 UV-I 0 W/m 3,1 C 5,6 C 11,3 km/h (2 Bft) 98 %
04.12.2020 17:26 5,8 C 83 % 987,2 hPa 0,0 l/m 0 min 0 min 0,000 mm 0,0 UV-I 0 W/m 3,1 C 5,8 C 9,7 km/h (2 Bft) 98 %
04.12.2020 17:24 5,9 C 83 % 987,1 hPa 0,0 l/m 0 min 0 min 0,000 mm 0,0 UV-I 0 W/m 3,2 C 5,7 C 11,3 km/h (2 Bft) 96 %
04.12.2020 17:22 5,9 C 84 % 987,0 hPa 0,0 l/m 0 min 0 min 0,000 mm 0,0 UV-I 0 W/m 3,4 C 5,9 C 11,3 km/h (2 Bft) 94 %
04.12.2020 17:20 5,9 C 84 % 987,1 hPa 0,0 l/m 0 min 0 min 0,000 mm 0,0 UV-I 0 W/m 3,4 C 5,9 C 9,7 km/h (2 Bft) 98 %
04.12.2020 17:18 5,9 C 84 % 987,1 hPa 0,0 l/m 0 min 0 min 0,000 mm 0,0 UV-I 0 W/m 3,4 C 5,9 C 8,0 km/h (2 Bft) 96 %
04.12.2020 17:16 5,9 C 84 % 987,0 hPa 0,0 l/m 0 min 0 min 0,000 mm 0,0 UV-I 0 W/m 3,4 C 5,9 C 8,0 km/h (2 Bft) 96 %
04.12.2020 17:14 6,0 C 84 % 987,0 hPa 0,0 l/m 0 min 0 min 0,000 mm 0,0 UV-I 0 W/m 3,5 C 4,7 C 17,7 km/h (3 Bft) 96 %
04.12.2020 17:12 6,0 C 84 % 987,0 hPa 0,0 l/m 0 min 0 min 0,000 mm 0,0 UV-I 0 W/m 3,5 C 4,3 C 12,9 km/h (3 Bft) 96 %
04.12.2020 17:10 6,0 C 84 % 987,0 hPa 0,0 l/m 0 min 0 min 0,000 mm 0,0 UV-I 0 W/m 3,5 C 6,0 C 12,9 km/h (3 Bft) 96 %
04.12.2020 17:08 6,0 C 84 % 986,9 hPa 0,0 l/m 0 min 0 min 0,000 mm 0,0 UV-I 0 W/m 3,5 C 4,3 C 14,5 km/h (3 Bft) 89 %
04.12.2020 17:06 6,0 C 84 % 986,9 hPa 0,0 l/m 0 min 0 min 0,000 mm 0,0 UV-I 0 W/m 3,5 C 2,5 C 14,5 km/h (3 Bft) 93 %
04.12.2020 17:04 6,1 C 84 % 986,9 hPa 0,0 l/m 0 min 0 min 0,026 mm 0,0 UV-I 0 W/m 3,6 C 6,1 C 17,7 km/h (3 Bft) 91 %
04.12.2020 17:00 6,1 C 84 % 986,8 hPa 0,0 l/m 0 min 0 min 0,000 mm 0,0 UV-I 0 W/m 3,6 C 5,0 C 17,7 km/h (3 Bft) 94 %
04.12.2020 16:58 6,1 C 84 % 986,8 hPa 0,0 l/m 0 min 0 min 0,000 mm 0,0 UV-I 0 W/m 3,6 C 4,0 C 17,7 km/h (3 Bft) 94 %
04.12.2020 16:56 6,1 C 84 % 986,8 hPa 0,0 l/m 0 min 0 min 0,000 mm 0,0 UV-I 0 W/m 3,6 C 3,9 C 19,3 km/h (3 Bft) 91 %
04.12.2020 16:54 6,0 C 84 % 986,8 hPa 0,0 l/m 0 min 0 min 0,000 mm 0,0 UV-I 0 W/m 3,5 C 5,0 C 11,3 km/h (2 Bft) 93 %
04.12.2020 16:52 6,0 C 84 % 986,7 hPa 0,0 l/m 0 min 0 min 0,000 mm 0,0 UV-I 0 W/m 3,5 C 4,3 C 16,1 km/h (3 Bft) 94 %
04.12.2020 16:50 5,9 C 84 % 986,6 hPa 0,0 l/m 0 min 0 min 0,000 mm 0,0 UV-I 0 W/m 3,4 C 5,0 C 11,3 km/h (2 Bft) 88 %
04.12.2020 16:48 5,9 C 83 % 986,6 hPa 0,0 l/m 0 min 0 min 0,000 mm 0,0 UV-I 0 W/m 3,2 C 5,8 C 11,3 km/h (2 Bft) 94 %
04.12.2020 16:46 6,0 C 83 % 986,6 hPa 0,0 l/m 0 min 0 min 0,000 mm 0,0 UV-I 0 W/m 3,3 C 6,0 C 9,7 km/h (2 Bft) 98 %
04.12.2020 16:44 6,1 C 83 % 986,6 hPa 0,0 l/m 0 min 0 min 0,000 mm 0,0 UV-I 0 W/m 3,4 C 6,1 C 9,7 km/h (2 Bft) 96 %
04.12.2020 16:42 6,1 C 83 % 986,6 hPa 0,0 l/m 0 min 0 min 0,000 mm 0,0 UV-I 3 W/m 3,4 C 6,1 C 8,0 km/h (2 Bft) 98 %
04.12.2020 16:40 6,1 C 83 % 986,5 hPa 0,0 l/m 0 min 0 min 0,000 mm 0,0 UV-I 6 W/m 3,4 C 6,1 C 9,7 km/h (2 Bft) 96 %
04.12.2020 16:38 6,2 C 83 % 986,5 hPa 0,0 l/m 0 min 0 min 0,000 mm 0,0 UV-I 7 W/m 3,5 C 6,2 C 8,0 km/h (2 Bft) 94 %
04.12.2020 16:36 6,2 C 83 % 986,5 hPa 0,0 l/m 0 min 0 min 0,000 mm 0,0 UV-I 8 W/m 3,5 C 6,2 C 9,7 km/h (2 Bft) 100 %
04.12.2020 16:34 6,2 C 83 % 986,6 hPa 0,0 l/m 0 min 0 min 0,000 mm 0,0 UV-I 8 W/m 3,5 C 6,2 C 11,3 km/h (2 Bft) 100 %
04.12.2020 16:32 6,2 C 83 % 986,5 hPa 0,0 l/m 0 min 0 min 0,000 mm 0,0 UV-I 7 W/m 3,5 C 6,2 C 8,0 km/h (2 Bft) 100 %
04.12.2020 16:30 6,2 C 83 % 986,5 hPa 0,0 l/m 0 min 0 min 0,000 mm 0,0 UV-I 8 W/m 3,5 C 6,2 C 8,0 km/h (2 Bft) 100 %
04.12.2020 16:28 6,3 C 83 % 986,5 hPa 0,0 l/m 0 min 0 min 0,000 mm 0,0 UV-I 9 W/m 3,6 C 6,3 C 9,7 km/h (2 Bft) 100 %
04.12.2020 16:26 6,3 C 82 % 986,4 hPa 0,0 l/m 0 min 0 min 0,000 mm 0,0 UV-I 9 W/m 3,5 C 5,8 C 12,9 km/h (3 Bft) 100 %
04.12.2020 16:24 6,4 C 82 % 986,4 hPa 0,0 l/m 0 min 0 min 0,000 mm 0,0 UV-I 9 W/m 3,6 C 6,4 C 11,3 km/h (2 Bft) 100 %
04.12.2020 16:22 6,4 C 82 % 986,4 hPa 0,0 l/m 0 min 0 min 0,000 mm 0,0 UV-I 10 W/m 3,6 C 6,4 C 11,3 km/h (2 Bft) 98 %
04.12.2020 16:20 6,5 C 82 % 986,4 hPa 0,0 l/m 0 min 0 min 0,000 mm 0,0 UV-I 11 W/m 3,7 C 6,5 C 8,0 km/h (2 Bft) 100 %
04.12.2020 16:18 6,6 C 82 % 986,4 hPa 0,0 l/m 0 min 0 min 0,000 mm 0,0 UV-I 12 W/m 3,8 C 6,6 C 9,7 km/h (2 Bft) 100 %
04.12.2020 16:16 6,6 C 82 % 986,4 hPa 0,0 l/m 0 min 0 min 0,000 mm 0,0 UV-I 14 W/m 3,8 C 6,6 C 6,4 km/h (2 Bft) 100 %
04.12.2020 16:14 6,6 C 82 % 986,3 hPa 0,0 l/m 0 min 0 min 0,000 mm 0,0 UV-I 15 W/m 3,8 C 5,5 C 9,7 km/h (2 Bft) 100 %
04.12.2020 16:12 6,6 C 82 % 986,3 hPa 0,0 l/m 0 min 0 min 0,000 mm 0,0 UV-I 16 W/m 3,8 C 6,6 C 9,7 km/h (2 Bft) 98 %
04.12.2020 16:10 6,7 C 82 % 986,3 hPa 0,0 l/m 0 min 0 min 0,000 mm 0,0 UV-I 18 W/m 3,8 C 5,3 C 14,5 km/h (3 Bft) 98 %
04.12.2020 16:08 6,7 C 82 % 986,3 hPa 0,0 l/m 0 min 0 min 0,000 mm 0,0 UV-I 20 W/m 3,8 C 5,2 C 12,9 km/h (3 Bft) 94 %
04.12.2020 16:06 6,7 C 82 % 986,2 hPa 0,0 l/m 0 min 0 min 0,000 mm 0,0 UV-I 22 W/m 3,8 C 6,7 C 9,7 km/h (2 Bft) 98 %
04.12.2020 16:04 6,7 C 82 % 986,1 hPa 0,0 l/m 0 min 0 min 0,050 mm 0,0 UV-I 26 W/m 3,8 C 5,6 C 16,1 km/h (3 Bft) 98 %
04.12.2020 16:00 6,7 C 82 % 986,1 hPa 0,0 l/m 0 min 0 min 0,000 mm 0,0 UV-I 27 W/m 3,8 C 2,5 C 19,3 km/h (3 Bft) 98 %
04.12.2020 15:58 6,7 C 82 % 986,1 hPa 0,0 l/m 0 min 0 min 0,000 mm 0,0 UV-I 27 W/m 3,8 C 4,2 C 16,1 km/h (3 Bft) 98 %
04.12.2020 15:56 6,7 C 82 % 986,1 hPa 0,0 l/m 0 min 0 min 0,000 mm 0,0 UV-I 27 W/m 3,8 C 4,9 C 16,1 km/h (3 Bft) 98 %
04.12.2020 15:54 6,8 C 82 % 986,0 hPa 0,0 l/m 0 min 0 min 0,000 mm 0,0 UV-I 27 W/m 3,9 C 0,6 C 29,0 km/h (5 Bft) 96 %
04.12.2020 15:52 6,8 C 82 % 985,9 hPa 0,0 l/m 0 min 0 min 0,000 mm 0,0 UV-I 28 W/m 3,9 C 3,2 C 29,0 km/h (5 Bft) 100 %
04.12.2020 15:50 6,8 C 82 % 985,9 hPa 0,0 l/m 0 min 0 min 0,000 mm 0,0 UV-I 29 W/m 3,9 C 4,7 C 16,1 km/h (3 Bft) 100 %
04.12.2020 15:48 6,8 C 82 % 985,8 hPa 0,0 l/m 0 min 0 min 0,000 mm 0,0 UV-I 32 W/m 3,9 C 2,1 C 20,9 km/h (4 Bft) 98 %
04.12.2020 15:46 6,8 C 82 % 985,8 hPa 0,0 l/m 0 min 0 min 0,000 mm 0,0 UV-I 35 W/m 3,9 C 3,7 C 20,9 km/h (4 Bft) 98 %
04.12.2020 15:44 6,8 C 82 % 985,8 hPa 0,0 l/m 0 min 0 min 0,000 mm 0,0 UV-I 40 W/m 3,9 C 4,1 C 19,3 km/h (3 Bft) 98 %
04.12.2020 15:42 6,8 C 82 % 985,8 hPa 0,0 l/m 0 min 0 min 0,000 mm 0,5 UV-I 44 W/m 3,9 C 1,2 C 25,7 km/h (4 Bft) 98 %
04.12.2020 15:40 6,8 C 82 % 985,8 hPa 0,0 l/m 0 min 0 min 0,000 mm 0,6 UV-I 50 W/m 3,9 C 5,1 C 14,5 km/h (3 Bft) 98 %
04.12.2020 15:38 6,9 C 82 % 985,8 hPa 0,0 l/m 0 min 0 min 0,000 mm 0,6 UV-I 54 W/m 4,0 C 6,9 C 14,5 km/h (3 Bft) 96 %
04.12.2020 15:36 6,8 C 82 % 985,7 hPa 0,0 l/m 0 min 0 min 0,000 mm 0,6 UV-I 53 W/m 3,9 C 1,5 C 17,7 km/h (3 Bft) 96 %
04.12.2020 15:34 6,9 C 82 % 985,7 hPa 0,0 l/m 0 min 0 min 0,000 mm 0,6 UV-I 52 W/m 4,0 C 6,0 C 17,7 km/h (3 Bft) 98 %
04.12.2020 15:32 6,9 C 82 % 985,7 hPa 0,0 l/m 0 min 0 min 0,000 mm 0,6 UV-I 50 W/m 4,0 C 5,8 C 12,9 km/h (3 Bft) 98 %
04.12.2020 15:30 6,9 C 82 % 985,6 hPa 0,0 l/m 0 min 0 min 0,000 mm 0,6 UV-I 50 W/m 4,0 C 5,9 C 16,1 km/h (3 Bft) 96 %
04.12.2020 15:28 6,9 C 82 % 985,6 hPa 0,0 l/m 0 min 0 min 0,000 mm 0,6 UV-I 51 W/m 4,0 C 2,8 C 20,9 km/h (4 Bft) 96 %
04.12.2020 15:26 6,9 C 82 % 985,5 hPa 0,0 l/m 0 min 0 min 0,000 mm 0,6 UV-I 55 W/m 4,0 C 5,2 C 12,9 km/h (3 Bft) 96 %
04.12.2020 15:24 6,9 C 82 % 985,6 hPa 0,0 l/m 0 min 0 min 0,000 mm 0,6 UV-I 58 W/m 4,0 C 0,0 C 30,6 km/h (5 Bft) 96 %
04.12.2020 15:22 6,9 C 82 % 985,5 hPa 0,0 l/m 0 min 0 min 0,000 mm 0,6 UV-I 61 W/m 4,0 C 1,8 C 29,0 km/h (5 Bft) 96 %
04.12.2020 15:20 6,9 C 82 % 985,6 hPa 0,0 l/m 0 min 0 min 0,000 mm 0,6 UV-I 67 W/m 4,0 C 6,9 C 9,7 km/h (2 Bft) 100 %
04.12.2020 15:18 6,9 C 82 % 985,6 hPa 0,0 l/m 0 min 0 min 0,000 mm 0,6 UV-I 73 W/m 4,0 C 4,7 C 14,5 km/h (3 Bft) 98 %
04.12.2020 15:16 6,9 C 82 % 985,6 hPa 0,0 l/m 0 min 0 min 0,000 mm 0,6 UV-I 74 W/m 4,0 C 4,9 C 20,9 km/h (4 Bft) 98 %
04.12.2020 15:14 6,9 C 82 % 985,4 hPa 0,0 l/m 0 min 0 min 0,000 mm 0,6 UV-I 71 W/m 4,0 C 6,2 C 16,1 km/h (3 Bft) 96 %
04.12.2020 15:12 6,9 C 81 % 985,4 hPa 0,0 l/m 0 min 0 min 0,000 mm 0,7 UV-I 67 W/m 3,9 C 5,4 C 14,5 km/h (3 Bft) 96 %
04.12.2020 15:10 6,9 C 81 % 985,3 hPa 0,0 l/m 0 min 0 min 0,000 mm 0,7 UV-I 67 W/m 3,9 C 3,6 C 20,9 km/h (4 Bft) 96 %
04.12.2020 15:08 6,9 C 81 % 985,3 hPa 0,0 l/m 0 min 0 min 0,000 mm 0,7 UV-I 67 W/m 3,9 C 6,0 C 14,5 km/h (3 Bft) 98 %
04.12.2020 15:06 6,9 C 81 % 985,2 hPa 0,0 l/m 0 min 0 min 0,000 mm 0,7 UV-I 67 W/m 3,9 C 5,8 C 16,1 km/h (3 Bft) 98 %
04.12.2020 15:04 7,0 C 82 % 985,1 hPa 0,0 l/m 0 min 0 min 0,077 mm 0,7 UV-I 64 W/m 4,1 C 4,2 C 22,5 km/h (4 Bft) 97 %
04.12.2020 15:00 7,0 C 81 % 985,1 hPa 0,0 l/m 0 min 0 min 0,000 mm 0,7 UV-I 65 W/m 4,0 C 1,3 C 27,4 km/h (4 Bft) 98 %
04.12.2020 14:58 7,0 C 81 % 985,2 hPa 0,0 l/m 0 min 0 min 0,000 mm 0,7 UV-I 70 W/m 4,0 C 3,6 C 20,9 km/h (4 Bft) 98 %
04.12.2020 14:56 7,1 C 81 % 985,2 hPa 0,0 l/m 0 min 0 min 0,000 mm 0,7 UV-I 75 W/m 4,1 C 3,7 C 17,7 km/h (3 Bft) 98 %
04.12.2020 14:54 7,1 C 81 % 985,2 hPa 0,0 l/m 0 min 0 min 0,000 mm 0,7 UV-I 78 W/m 4,1 C 6,8 C 14,5 km/h (3 Bft) 97 %
04.12.2020 14:52 7,1 C 81 % 985,2 hPa 0,0 l/m 0 min 0 min 0,000 mm 0,7 UV-I 79 W/m 4,1 C 1,6 C 25,7 km/h (4 Bft) 95 %
04.12.2020 14:50 7,1 C 81 % 985,2 hPa 0,0 l/m 0 min 0 min 0,000 mm 0,7 UV-I 80 W/m 4,1 C 5,7 C 16,1 km/h (3 Bft) 98 %
04.12.2020 14:48 7,1 C 80 % 985,2 hPa 0,0 l/m 0 min 0 min 0,000 mm 0,7 UV-I 80 W/m 3,9 C 4,8 C 16,1 km/h (3 Bft) 96 %
04.12.2020 14:46 7,1 C 81 % 985,1 hPa 0,0 l/m 0 min 0 min 0,000 mm 0,7 UV-I 81 W/m 4,1 C 2,8 C 25,7 km/h (4 Bft) 100 %
04.12.2020 14:44 7,1 C 80 % 985,1 hPa 0,0 l/m 0 min 0 min 0,000 mm 0,7 UV-I 83 W/m 3,9 C 7,1 C 11,3 km/h (2 Bft) 100 %
04.12.2020 14:42 7,1 C 80 % 985,0 hPa 0,0 l/m 0 min 0 min 0,000 mm 0,8 UV-I 89 W/m 3,9 C 6,3 C 16,1 km/h (3 Bft) 100 %
04.12.2020 14:40 7,1 C 80 % 985,0 hPa 0,0 l/m 0 min 0 min 0,000 mm 0,8 UV-I 93 W/m 3,9 C 1,2 C 24,1 km/h (4 Bft) 100 %
04.12.2020 14:38 7,2 C 81 % 985,0 hPa 0,0 l/m 0 min 0 min 0,000 mm 0,8 UV-I 93 W/m 4,2 C 1,6 C 22,5 km/h (4 Bft) 100 %
04.12.2020 14:36 7,2 C 81 % 984,9 hPa 0,0 l/m 0 min 0 min 0,000 mm 0,8 UV-I 93 W/m 4,2 C 4,4 C 20,9 km/h (4 Bft) 96 %
04.12.2020 14:34 7,2 C 81 % 985,0 hPa 0,0 l/m 0 min 0 min 0,000 mm 0,8 UV-I 93 W/m 4,2 C 3,6 C 17,7 km/h (3 Bft) 100 %
04.12.2020 14:32 7,2 C 80 % 985,0 hPa 0,0 l/m 0 min 0 min 0,000 mm 0,8 UV-I 94 W/m 4,0 C 5,7 C 16,1 km/h (3 Bft) 98 %
04.12.2020 14:30 7,2 C 80 % 984,9 hPa 0,0 l/m 0 min 0 min 0,000 mm 0,8 UV-I 98 W/m 4,0 C 3,5 C 19,3 km/h (3 Bft) 98 %
04.12.2020 14:28 7,3 C 80 % 985,0 hPa 0,0 l/m 0 min 0 min 0,000 mm 0,8 UV-I 102 W/m 4,1 C 3,5 C 20,9 km/h (4 Bft) 100 %
04.12.2020 14:26 7,3 C 80 % 985,0 hPa 0,0 l/m 0 min 0 min 0,000 mm 0,8 UV-I 107 W/m 4,1 C 3,6 C 17,7 km/h (3 Bft) 98 %
04.12.2020 14:24 7,3 C 80 % 985,0 hPa 0,0 l/m 0 min 0 min 0,000 mm 0,8 UV-I 110 W/m 4,1 C 3,2 C 19,3 km/h (3 Bft) 91 %
04.12.2020 14:22 7,4 C 80 % 985,0 hPa 0,0 l/m 0 min 0 min 0,000 mm 0,8 UV-I 116 W/m 4,2 C 6,2 C 16,1 km/h (3 Bft) 98 %
04.12.2020 14:20 7,4 C 81 % 985,0 hPa 0,0 l/m 0 min 0 min 0,000 mm 0,8 UV-I 121 W/m 4,4 C 6,0 C 14,5 km/h (3 Bft) 98 %
04.12.2020 14:18 7,4 C 80 % 985,0 hPa 0,0 l/m 0 min 0 min 0,000 mm 0,8 UV-I 123 W/m 4,2 C 7,4 C 12,9 km/h (3 Bft) 96 %
04.12.2020 14:16 7,4 C 80 % 984,9 hPa 0,0 l/m 0 min 0 min 0,000 mm 0,8 UV-I 122 W/m 4,2 C 6,1 C 16,1 km/h (3 Bft) 98 %
04.12.2020 14:14 7,5 C 80 % 984,8 hPa 0,0 l/m 0 min 0 min 0,000 mm 0,8 UV-I 120 W/m 4,3 C 5,1 C 22,5 km/h (4 Bft) 98 %
04.12.2020 14:12 7,6 C 80 % 984,8 hPa 0,0 l/m 0 min 0 min 0,000 mm 0,9 UV-I 119 W/m 4,4 C 7,6 C 17,7 km/h (3 Bft) 96 %
04.12.2020 14:10 7,6 C 80 % 984,8 hPa 0,0 l/m 0 min 0 min 0,000 mm 0,8 UV-I 118 W/m 4,4 C 7,6 C 12,9 km/h (3 Bft) 98 %
04.12.2020 14:08 7,7 C 80 % 984,8 hPa 0,0 l/m 0 min 0 min 0,000 mm 0,8 UV-I 117 W/m 4,5 C 3,7 C 17,7 km/h (3 Bft) 96 %
04.12.2020 14:06 7,7 C 80 % 984,8 hPa 0,0 l/m 0 min 0 min 0,000 mm 0,8 UV-I 119 W/m 4,5 C 5,3 C 14,5 km/h (3 Bft) 98 %
04.12.2020 14:04 7,8 C 80 % 984,7 hPa 0,0 l/m 0 min 0 min 0,101 mm 0,9 UV-I 133 W/m 4,6 C 5,6 C 20,9 km/h (4 Bft) 98 %
04.12.2020 14:00 7,8 C 80 % 984,7 hPa 0,0 l/m 2 min 0 min 0,000 mm 0,9 UV-I 188 W/m 4,6 C 4,9 C 16,1 km/h (3 Bft) 96 %
04.12.2020 13:58 7,8 C 80 % 984,7 hPa 0,0 l/m 2 min 0 min 0,000 mm 0,9 UV-I 205 W/m 4,6 C 4,5 C 22,5 km/h (4 Bft) 100 %
04.12.2020 13:56 7,9 C 80 % 984,7 hPa 0,0 l/m 2 min 0 min 0,000 mm 0,9 UV-I 229 W/m 4,7 C 5,3 C 17,7 km/h (3 Bft) 96 %
04.12.2020 13:54 7,9 C 80 % 984,7 hPa 0,0 l/m 2 min 0 min 0,000 mm 0,9 UV-I 164 W/m 4,7 C 1,2 C 30,6 km/h (5 Bft) 98 %
04.12.2020 13:52 8,0 C 80 % 984,6 hPa 0,0 l/m 2 min 0 min 0,000 mm 0,9 UV-I 217 W/m 4,8 C 3,5 C 20,9 km/h (4 Bft) 98 %
04.12.2020 13:50 8,0 C 81 % 984,7 hPa 0,0 l/m 2 min 0 min 0,000 mm 0,9 UV-I 187 W/m 4,9 C 4,4 C 20,9 km/h (4 Bft) 100 %
04.12.2020 13:48 8,0 C 81 % 984,6 hPa 0,0 l/m 2 min 0 min 0,000 mm 1,0 UV-I 264 W/m 4,9 C 6,0 C 17,7 km/h (3 Bft) 98 %
04.12.2020 13:46 7,8 C 81 % 984,6 hPa 0,0 l/m 2 min 0 min 0,000 mm 1,0 UV-I 259 W/m 4,7 C 2,1 C 29,0 km/h (5 Bft) 100 %
04.12.2020 13:44 7,7 C 82 % 984,7 hPa 0,0 l/m 2 min 0 min 0,000 mm 1,0 UV-I 347 W/m 4,8 C 2,2 C 24,1 km/h (4 Bft) 100 %
04.12.2020 13:42 7,6 C 82 % 984,7 hPa 0,0 l/m 2 min 0 min 0,000 mm 1,0 UV-I 311 W/m 4,7 C 3,0 C 19,3 km/h (3 Bft) 98 %
04.12.2020 13:40 7,5 C 82 % 984,7 hPa 0,0 l/m 2 min 0 min 0,000 mm 0,9 UV-I 227 W/m 4,6 C 4,0 C 17,7 km/h (3 Bft) 100 %
04.12.2020 13:38 7,4 C 82 % 984,7 hPa 0,0 l/m 2 min 0 min 0,000 mm 0,9 UV-I 168 W/m 4,5 C 3,6 C 17,7 km/h (3 Bft) 96 %
04.12.2020 13:36 7,4 C 82 % 984,8 hPa 0,0 l/m 0 min 0 min 0,000 mm 0,9 UV-I 154 W/m 4,5 C 3,2 C 17,7 km/h (3 Bft) 100 %
04.12.2020 13:34 7,3 C 82 % 984,8 hPa 0,0 l/m 0 min 0 min 0,000 mm 0,9 UV-I 138 W/m 4,4 C 5,4 C 14,5 km/h (3 Bft) 96 %
04.12.2020 13:32 7,3 C 81 % 984,8 hPa 0,0 l/m 0 min 0 min 0,000 mm 0,8 UV-I 120 W/m 4,3 C 6,7 C 14,5 km/h (3 Bft) 98 %
04.12.2020 13:30 7,3 C 81 % 984,9 hPa 0,0 l/m 0 min 0 min 0,000 mm 0,9 UV-I 109 W/m 4,3 C 4,7 C 16,1 km/h (3 Bft) 98 %
04.12.2020 13:28 7,3 C 81 % 984,7 hPa 0,0 l/m 0 min 0 min 0,000 mm 0,9 UV-I 104 W/m 4,3 C 5,9 C 14,5 km/h (3 Bft) 98 %
04.12.2020 13:26 7,3 C 81 % 984,8 hPa 0,0 l/m 0 min 0 min 0,000 mm 0,9 UV-I 95 W/m 4,3 C 4,4 C 20,9 km/h (4 Bft) 96 %
04.12.2020 13:24 7,4 C 81 % 984,8 hPa 0,0 l/m 0 min 0 min 0,000 mm 0,9 UV-I 87 W/m 4,4 C 1,6 C 27,4 km/h (4 Bft) 98 %
04.12.2020 13:22 7,4 C 80 % 984,9 hPa 0,0 l/m 0 min 0 min 0,000 mm 0,9 UV-I 76 W/m 4,2 C 2,4 C 22,5 km/h (4 Bft) 98 %
04.12.2020 13:20 7,5 C 80 % 984,8 hPa 0,0 l/m 0 min 0 min 0,000 mm 0,8 UV-I 68 W/m 4,3 C 0,6 C 30,6 km/h (5 Bft) 93 %
04.12.2020 13:18 7,6 C 80 % 984,8 hPa 0,0 l/m 0 min 0 min 0,000 mm 0,9 UV-I 76 W/m 4,4 C -0,8 C 33,8 km/h (5 Bft) 98 %
04.12.2020 13:16 7,7 C 81 % 984,7 hPa 0,0 l/m 0 min 0 min 0,000 mm 0,9 UV-I 95 W/m 4,7 C 1,8 C 24,1 km/h (4 Bft) 94 %
04.12.2020 13:14 7,7 C 81 % 984,8 hPa 0,0 l/m 0 min 0 min 0,000 mm 0,9 UV-I 125 W/m 4,7 C 4,8 C 19,3 km/h (3 Bft) 98 %
04.12.2020 13:12 7,7 C 81 % 984,8 hPa 0,0 l/m 0 min 0 min 0,000 mm 0,9 UV-I 145 W/m 4,7 C 7,1 C 12,9 km/h (3 Bft) 98 %
04.12.2020 13:10 7,7 C 81 % 984,8 hPa 0,0 l/m 0 min 0 min 0,000 mm 1,0 UV-I 166 W/m 4,7 C 3,7 C 19,3 km/h (3 Bft) 96 %
04.12.2020 13:08 7,7 C 81 % 984,8 hPa 0,0 l/m 2 min 0 min 0,000 mm 1,1 UV-I 202 W/m 4,7 C 3,4 C 19,3 km/h (3 Bft) 98 %
04.12.2020 13:06 7,7 C 81 % 984,8 hPa 0,0 l/m 2 min 0 min 0,000 mm 1,1 UV-I 262 W/m 4,7 C 3,1 C 25,7 km/h (4 Bft) 98 %
04.12.2020 13:04 7,7 C 82 % 984,7 hPa 0,0 l/m 2 min 0 min 0,102 mm 1,1 UV-I 275 W/m 4,8 C 6,0 C 16,1 km/h (3 Bft) 94 %
04.12.2020 13:00 7,5 C 83 % 984,6 hPa 0,0 l/m 2 min 0 min 0,000 mm 1,1 UV-I 300 W/m 4,8 C 3,9 C 16,1 km/h (3 Bft) 94 %
04.12.2020 12:58 7,3 C 82 % 984,6 hPa 0,0 l/m 2 min 0 min 0,000 mm 1,1 UV-I 270 W/m 4,4 C 6,9 C 14,5 km/h (3 Bft) 94 %
04.12.2020 12:56 7,3 C 82 % 984,6 hPa 0,0 l/m 2 min 0 min 0,000 mm 1,0 UV-I 200 W/m 4,4 C 6,2 C 17,7 km/h (3 Bft) 94 %
04.12.2020 12:54 7,2 C 82 % 984,6 hPa 0,0 l/m 0 min 0 min 0,000 mm 1,0 UV-I 124 W/m 4,3 C 2,8 C 22,5 km/h (4 Bft) 96 %
04.12.2020 12:52 7,2 C 81 % 984,6 hPa 0,0 l/m 0 min 0 min 0,000 mm 0,9 UV-I 96 W/m 4,2 C 1,0 C 24,1 km/h (4 Bft) 96 %
04.12.2020 12:50 7,3 C 81 % 984,4 hPa 0,0 l/m 0 min 0 min 0,000 mm 1,0 UV-I 93 W/m 4,3 C 1,2 C 25,7 km/h (4 Bft) 94 %
04.12.2020 12:48 7,3 C 81 % 984,3 hPa 0,0 l/m 0 min 0 min 0,000 mm 1,0 UV-I 99 W/m 4,3 C 0,2 C 25,7 km/h (4 Bft) 98 %
04.12.2020 12:46 7,4 C 81 % 984,3 hPa 0,0 l/m 0 min 0 min 0,000 mm 1,0 UV-I 108 W/m 4,4 C 3,6 C 20,9 km/h (4 Bft) 96 %
04.12.2020 12:44 7,4 C 81 % 984,3 hPa 0,0 l/m 0 min 0 min 0,000 mm 1,0 UV-I 108 W/m 4,4 C 3,5 C 19,3 km/h (3 Bft) 94 %
04.12.2020 12:42 7,5 C 81 % 984,4 hPa 0,0 l/m 0 min 0 min 0,000 mm 0,9 UV-I 101 W/m 4,5 C 3,0 C 22,5 km/h (4 Bft) 94 %
04.12.2020 12:40 7,6 C 81 % 984,3 hPa 0,0 l/m 0 min 0 min 0,000 mm 1,0 UV-I 96 W/m 4,6 C 5,4 C 16,1 km/h (3 Bft) 96 %
04.12.2020 12:38 7,6 C 81 % 984,3 hPa 0,0 l/m 0 min 0 min 0,000 mm 1,0 UV-I 100 W/m 4,6 C 3,0 C 24,1 km/h (4 Bft) 96 %
04.12.2020 12:36 7,7 C 81 % 984,2 hPa 0,0 l/m 0 min 0 min 0,000 mm 1,0 UV-I 146 W/m 4,7 C 0,5 C 29,0 km/h (5 Bft) 98 %
04.12.2020 12:34 7,7 C 81 % 984,3 hPa 0,0 l/m 0 min 0 min 0,000 mm 1,1 UV-I 178 W/m 4,7 C 2,4 C 27,4 km/h (4 Bft) 96 %
04.12.2020 12:32 7,7 C 81 % 984,3 hPa 0,0 l/m 2 min 0 min 0,000 mm 1,1 UV-I 206 W/m 4,7 C 3,6 C 17,7 km/h (3 Bft) 98 %
04.12.2020 12:30 7,7 C 81 % 984,3 hPa 0,0 l/m 2 min 0 min 0,000 mm 1,2 UV-I 219 W/m 4,7 C 1,6 C 25,7 km/h (4 Bft) 96 %
04.12.2020 12:28 7,8 C 82 % 984,3 hPa 0,0 l/m 2 min 0 min 0,000 mm 1,1 UV-I 185 W/m 4,9 C 2,5 C 32,2 km/h (5 Bft) 96 %
04.12.2020 12:26 7,8 C 82 % 984,2 hPa 0,0 l/m 2 min 0 min 0,000 mm 1,2 UV-I 382 W/m 4,9 C 2,2 C 24,1 km/h (4 Bft) 94 %
04.12.2020 12:24 7,6 C 82 % 984,2 hPa 0,0 l/m 2 min 0 min 0,000 mm 1,2 UV-I 325 W/m 4,7 C 3,9 C 24,1 km/h (4 Bft) 94 %
04.12.2020 12:20 7,5 C 82 % 984,3 hPa 0,0 l/m 2 min 0 min 0,000 mm 1,1 UV-I 271 W/m 4,6 C 3,1 C 16,1 km/h (3 Bft) 96 %
04.12.2020 12:18 7,4 C 82 % 984,3 hPa 0,0 l/m 2 min 0 min 0,000 mm 1,0 UV-I 190 W/m 4,5 C 3,5 C 20,9 km/h (4 Bft) 98 %
04.12.2020 12:16 7,4 C 81 % 984,2 hPa 0,0 l/m 0 min 0 min 0,000 mm 1,0 UV-I 157 W/m 4,4 C -0,3 C 30,6 km/h (5 Bft) 98 %
04.12.2020 12:14 7,5 C 82 % 984,3 hPa 0,0 l/m 2 min 0 min 0,000 mm 1,0 UV-I 198 W/m 4,6 C 2,0 C 24,1 km/h (4 Bft) 96 %
04.12.2020 12:12 7,4 C 82 % 984,2 hPa 0,0 l/m 2 min 0 min 0,000 mm 1,1 UV-I 213 W/m 4,5 C 6,5 C 11,3 km/h (2 Bft) 94 %
04.12.2020 12:10 7,3 C 81 % 984,4 hPa 0,0 l/m 2 min 0 min 0,000 mm 1,1 UV-I 244 W/m 4,3 C 4,0 C 24,1 km/h (4 Bft) 98 %
04.12.2020 12:08 7,3 C 81 % 984,4 hPa 0,0 l/m 2 min 0 min 0,000 mm 1,0 UV-I 186 W/m 4,3 C 2,3 C 27,4 km/h (4 Bft) 98 %
04.12.2020 12:06 7,3 C 81 % 984,3 hPa 0,0 l/m 0 min 0 min 0,000 mm 1,0 UV-I 151 W/m 4,3 C 3,6 C 17,7 km/h (3 Bft) 96 %
04.12.2020 12:04 7,4 C 81 % 984,3 hPa 0,0 l/m 0 min 0 min 0,127 mm 1,0 UV-I 104 W/m 4,4 C 3,8 C 22,5 km/h (4 Bft) 95 %
04.12.2020 12:00 7,6 C 81 % 984,4 hPa 0,0 l/m 0 min 0 min 0,000 mm 1,0 UV-I 141 W/m 4,6 C 4,7 C 17,7 km/h (3 Bft) 98 %
04.12.2020 11:58 7,6 C 82 % 984,4 hPa 0,0 l/m 2 min 0 min 0,000 mm 1,1 UV-I 260 W/m 4,7 C 3,0 C 22,5 km/h (4 Bft) 98 %
04.12.2020 11:56 7,5 C 82 % 984,3 hPa 0,0 l/m 2 min 0 min 0,000 mm 1,2 UV-I 281 W/m 4,6 C 3,1 C 24,1 km/h (4 Bft) 98 %
04.12.2020 11:54 7,4 C 82 % 984,3 hPa 0,0 l/m 2 min 0 min 0,000 mm 1,1 UV-I 224 W/m 4,5 C 1,8 C 25,7 km/h (4 Bft) 98 %
04.12.2020 11:52 7,3 C 82 % 984,3 hPa 0,0 l/m 2 min 0 min 0,000 mm 1,1 UV-I 224 W/m 4,4 C 0,8 C 29,0 km/h (5 Bft) 94 %
04.12.2020 11:50 7,2 C 82 % 984,4 hPa 0,0 l/m 2 min 0 min 0,000 mm 1,1 UV-I 229 W/m 4,3 C -0,2 C 38,6 km/h (5 Bft) 98 %
04.12.2020 11:48 7,2 C 82 % 984,3 hPa 0,0 l/m 2 min 0 min 0,000 mm 1,1 UV-I 214 W/m 4,3 C 2,4 C 22,5 km/h (4 Bft) 98 %
04.12.2020 11:46 7,2 C 82 % 984,2 hPa 0,0 l/m 2 min 0 min 0,000 mm 1,1 UV-I 186 W/m 4,3 C 2,1 C 24,1 km/h (4 Bft) 96 %
04.12.2020 11:44 7,2 C 82 % 984,3 hPa 0,0 l/m 0 min 0 min 0,000 mm 1,0 UV-I 132 W/m 4,3 C 1,8 C 24,1 km/h (4 Bft) 96 %
04.12.2020 11:42 7,2 C 82 % 984,2 hPa 0,0 l/m 0 min 0 min 0,000 mm 1,0 UV-I 113 W/m 4,3 C 0,6 C 24,1 km/h (4 Bft) 100 %
04.12.2020 11:40 7,3 C 81 % 984,2 hPa 0,0 l/m 0 min 0 min 0,000 mm 1,1 UV-I 156 W/m 4,3 C 0,6 C 32,2 km/h (5 Bft) 98 %
04.12.2020 11:38 7,3 C 81 % 984,1 hPa 0,0 l/m 2 min 0 min 0,000 mm 1,1 UV-I 232 W/m 4,3 C -2,5 C 45,1 km/h (6 Bft) 96 %
04.12.2020 11:36 7,3 C 82 % 984,1 hPa 0,0 l/m 2 min 0 min 0,000 mm 1,1 UV-I 248 W/m 4,4 C -1,5 C 35,4 km/h (5 Bft) 98 %
04.12.2020 11:34 7,3 C 82 % 984,0 hPa 0,0 l/m 2 min 0 min 0,000 mm 1,1 UV-I 233 W/m 4,4 C 0,1 C 29,0 km/h (5 Bft) 96 %
04.12.2020 11:32 7,2 C 82 % 983,9 hPa 0,0 l/m 2 min 0 min 0,000 mm 1,1 UV-I 274 W/m 4,3 C 0,7 C 35,4 km/h (5 Bft) 96 %
04.12.2020 11:30 7,2 C 81 % 983,8 hPa 0,0 l/m 0 min 0 min 0,000 mm 1,1 UV-I 171 W/m 4,2 C -1,4 C 32,2 km/h (5 Bft) 93 %
04.12.2020 11:28 7,3 C 81 % 983,8 hPa 0,0 l/m 0 min 0 min 0,000 mm 1,0 UV-I 124 W/m 4,3 C 0,5 C 25,7 km/h (4 Bft) 94 %
04.12.2020 11:26 7,4 C 80 % 983,8 hPa 0,0 l/m 0 min 0 min 0,000 mm 1,0 UV-I 112 W/m 4,2 C -0,1 C 25,7 km/h (4 Bft) 96 %
04.12.2020 11:24 7,6 C 80 % 983,8 hPa 0,0 l/m 2 min 0 min 0,000 mm 1,0 UV-I 177 W/m 4,4 C 1,6 C 24,1 km/h (4 Bft) 96 %
04.12.2020 11:22 7,7 C 81 % 983,8 hPa 0,0 l/m 2 min 0 min 0,000 mm 1,1 UV-I 256 W/m 4,7 C 2,3 C 20,9 km/h (4 Bft) 94 %
04.12.2020 11:20 7,7 C 80 % 983,8 hPa 0,0 l/m 2 min 0 min 0,000 mm 1,1 UV-I 278 W/m 4,5 C 0,5 C 30,6 km/h (5 Bft) 96 %
04.12.2020 11:18 7,7 C 80 % 983,8 hPa 0,0 l/m 2 min 0 min 0,000 mm 1,1 UV-I 234 W/m 4,5 C 0,4 C 29,0 km/h (5 Bft) 96 %
04.12.2020 11:16 7,7 C 81 % 983,7 hPa 0,0 l/m 2 min 0 min 0,000 mm 1,1 UV-I 267 W/m 4,7 C 0,9 C 29,0 km/h (5 Bft) 96 %
04.12.2020 11:14 7,7 C 81 % 983,6 hPa 0,0 l/m 2 min 0 min 0,000 mm 1,1 UV-I 319 W/m 4,7 C 0,1 C 33,8 km/h (5 Bft) 94 %
04.12.2020 11:12 7,6 C 81 % 983,6 hPa 0,0 l/m 2 min 0 min 0,000 mm 1,1 UV-I 339 W/m 4,6 C 0,7 C 27,4 km/h (4 Bft) 96 %
04.12.2020 11:10 7,6 C 81 % 983,6 hPa 0,0 l/m 2 min 0 min 0,000 mm 1,1 UV-I 314 W/m 4,6 C 1,3 C 27,4 km/h (4 Bft) 96 %
04.12.2020 11:08 7,5 C 81 % 983,6 hPa 0,0 l/m 2 min 0 min 0,000 mm 1,0 UV-I 209 W/m 4,5 C 3,7 C 27,4 km/h (4 Bft) 96 %
04.12.2020 11:06 7,6 C 81 % 983,6 hPa 0,0 l/m 2 min 0 min 0,000 mm 1,0 UV-I 164 W/m 4,6 C 1,0 C 30,6 km/h (5 Bft) 100 %
04.12.2020 11:04 7,6 C 81 % 983,6 hPa 0,0 l/m 2 min 0 min 0,152 mm 1,0 UV-I 214 W/m 4,6 C 2,2 C 27,4 km/h (4 Bft) 99 %
04.12.2020 11:00 7,6 C 81 % 983,6 hPa 0,0 l/m 2 min 0 min 0,000 mm 1,0 UV-I 250 W/m 4,6 C 1,3 C 25,7 km/h (4 Bft) 100 %
04.12.2020 10:58 7,6 C 81 % 983,6 hPa 0,0 l/m 2 min 0 min 0,000 mm 1,0 UV-I 263 W/m 4,6 C -0,3 C 33,8 km/h (5 Bft) 100 %
04.12.2020 10:56 7,6 C 81 % 983,6 hPa 0,0 l/m 2 min 0 min 0,000 mm 1,0 UV-I 258 W/m 4,6 C -2,0 C 48,3 km/h (6 Bft) 98 %
04.12.2020 10:54 7,6 C 82 % 983,5 hPa 0,0 l/m 2 min 0 min 0,000 mm 1,0 UV-I 280 W/m 4,7 C 0,4 C 37,0 km/h (5 Bft) 100 %
04.12.2020 10:52 7,6 C 82 % 983,5 hPa 0,0 l/m 2 min 0 min 0,000 mm 1,0 UV-I 296 W/m 4,7 C 1,6 C 29,0 km/h (5 Bft) 100 %
04.12.2020 10:50 7,5 C 82 % 983,5 hPa 0,0 l/m 2 min 0 min 0,000 mm 1,0 UV-I 266 W/m 4,6 C 1,5 C 27,4 km/h (4 Bft) 98 %
04.12.2020 10:48 7,5 C 81 % 983,5 hPa 0,0 l/m 2 min 0 min 0,000 mm 1,0 UV-I 189 W/m 4,5 C -0,2 C 35,4 km/h (5 Bft) 98 %
04.12.2020 10:46 7,6 C 81 % 983,4 hPa 0,0 l/m 0 min 0 min 0,000 mm 0,9 UV-I 136 W/m 4,6 C -0,9 C 43,5 km/h (6 Bft) 100 %
04.12.2020 10:44 7,7 C 81 % 983,5 hPa 0,0 l/m 0 min 0 min 0,000 mm 0,9 UV-I 117 W/m 4,7 C 0,1 C 30,6 km/h (5 Bft) 98 %
04.12.2020 10:42 7,8 C 81 % 983,7 hPa 0,0 l/m 0 min 0 min 0,000 mm 0,9 UV-I 138 W/m 4,7 C 0,1 C 35,4 km/h (5 Bft) 100 %
04.12.2020 10:40 7,8 C 81 % 983,4 hPa 0,0 l/m 2 min 0 min 0,000 mm 1,0 UV-I 231 W/m 4,7 C -0,9 C 38,6 km/h (5 Bft) 98 %
04.12.2020 10:38 7,8 C 81 % 983,4 hPa 0,0 l/m 2 min 0 min 0,000 mm 1,0 UV-I 265 W/m 4,7 C -0,4 C 33,8 km/h (5 Bft) 100 %
04.12.2020 10:36 7,8 C 81 % 983,3 hPa 0,0 l/m 2 min 0 min 0,000 mm 1,0 UV-I 271 W/m 4,7 C -0,4 C 33,8 km/h (5 Bft) 100 %
04.12.2020 10:34 7,8 C 82 % 983,3 hPa 0,0 l/m 2 min 0 min 0,000 mm 0,9 UV-I 267 W/m 4,9 C 0,2 C 33,8 km/h (5 Bft) 100 %
04.12.2020 10:32 7,8 C 82 % 983,2 hPa 0,0 l/m 2 min 0 min 0,000 mm 0,9 UV-I 279 W/m 4,9 C 1,2 C 25,7 km/h (4 Bft) 100 %
04.12.2020 10:30 7,8 C 82 % 983,1 hPa 0,0 l/m 2 min 0 min 0,000 mm 0,9 UV-I 266 W/m 4,9 C 2,5 C 22,5 km/h (4 Bft) 100 %
04.12.2020 10:28 7,7 C 82 % 983,1 hPa 0,0 l/m 2 min 0 min 0,000 mm 0,9 UV-I 259 W/m 4,8 C 2,3 C 24,1 km/h (4 Bft) 100 %
04.12.2020 10:26 7,7 C 82 % 983,1 hPa 0,0 l/m 2 min 0 min 0,000 mm 0,9 UV-I 252 W/m 4,8 C 0,8 C 33,8 km/h (5 Bft) 100 %
04.12.2020 10:24 7,7 C 82 % 983,1 hPa 0,0 l/m 2 min 0 min 0,000 mm 0,9 UV-I 240 W/m 4,8 C -0,3 C 29,0 km/h (5 Bft) 100 %
04.12.2020 10:22 7,7 C 82 % 983,2 hPa 0,0 l/m 2 min 0 min 0,000 mm 0,9 UV-I 244 W/m 4,8 C 0,1 C 30,6 km/h (5 Bft) 100 %
04.12.2020 10:20 7,7 C 82 % 983,1 hPa 0,0 l/m 2 min 0 min 0,000 mm 0,9 UV-I 231 W/m 4,8 C 1,9 C 29,0 km/h (5 Bft) 100 %
04.12.2020 10:18 7,6 C 82 % 983,1 hPa 0,0 l/m 2 min 0 min 0,000 mm 0,9 UV-I 216 W/m 4,7 C 0,8 C 32,2 km/h (5 Bft) 100 %
04.12.2020 10:16 7,6 C 82 % 983,1 hPa 0,0 l/m 2 min 0 min 0,000 mm 0,9 UV-I 203 W/m 4,7 C -2,6 C 46,7 km/h (6 Bft) 94 %
04.12.2020 10:14 7,6 C 82 % 983,1 hPa 0,0 l/m 2 min 0 min 0,000 mm 0,9 UV-I 209 W/m 4,7 C -1,2 C 37,0 km/h (5 Bft) 100 %
04.12.2020 10:12 7,6 C 82 % 983,0 hPa 0,0 l/m 2 min 0 min 0,000 mm 0,8 UV-I 215 W/m 4,7 C -1,1 C 33,8 km/h (5 Bft) 100 %
04.12.2020 10:10 7,6 C 82 % 982,9 hPa 0,0 l/m 2 min 0 min 0,000 mm 0,8 UV-I 204 W/m 4,7 C -1,5 C 40,2 km/h (6 Bft) 96 %
04.12.2020 10:08 7,6 C 82 % 982,8 hPa 0,0 l/m 2 min 0 min 0,000 mm 0,8 UV-I 210 W/m 4,7 C -2,4 C 38,6 km/h (5 Bft) 96 %
04.12.2020 10:06 7,6 C 82 % 982,7 hPa 0,0 l/m 2 min 0 min 0,000 mm 0,8 UV-I 206 W/m 4,7 C -0,0 C 29,0 km/h (5 Bft) 96 %
04.12.2020 10:04 7,6 C 82 % 982,6 hPa 0,0 l/m 2 min 0 min 0,076 mm 0,8 UV-I 181 W/m 4,7 C -0,1 C 33,8 km/h (5 Bft) 96 %
04.12.2020 10:00 7,5 C 82 % 982,6 hPa 0,0 l/m 2 min 0 min 0,000 mm 0,8 UV-I 186 W/m 4,6 C -1,0 C 37,0 km/h (5 Bft) 98 %
04.12.2020 09:58 7,5 C 82 % 982,6 hPa 0,0 l/m 2 min 0 min 0,000 mm 0,8 UV-I 178 W/m 4,6 C -1,7 C 38,6 km/h (5 Bft) 96 %
04.12.2020 09:56 7,4 C 83 % 982,5 hPa 0,0 l/m 2 min 0 min 0,000 mm 0,8 UV-I 173 W/m 4,7 C 2,9 C 22,5 km/h (4 Bft) 96 %
04.12.2020 09:54 7,4 C 83 % 982,4 hPa 0,0 l/m 2 min 0 min 0,000 mm 0,8 UV-I 168 W/m 4,7 C 0,2 C 29,0 km/h (5 Bft) 94 %
04.12.2020 09:52 7,4 C 83 % 982,6 hPa 0,0 l/m 2 min 0 min 0,000 mm 0,8 UV-I 164 W/m 4,7 C 1,3 C 29,0 km/h (5 Bft) 96 %
04.12.2020 09:50 7,4 C 83 % 982,5 hPa 0,0 l/m 2 min 0 min 0,000 mm 0,8 UV-I 158 W/m 4,7 C 0,7 C 30,6 km/h (5 Bft) 96 %
04.12.2020 09:48 7,3 C 83 % 982,6 hPa 0,0 l/m 2 min 0 min 0,000 mm 0,7 UV-I 150 W/m 4,6 C 1,0 C 33,8 km/h (5 Bft) 96 %
04.12.2020 09:46 7,3 C 83 % 982,5 hPa 0,0 l/m 2 min 0 min 0,000 mm 0,7 UV-I 143 W/m 4,6 C -1,4 C 37,0 km/h (5 Bft) 98 %
04.12.2020 09:44 7,3 C 83 % 982,5 hPa 0,0 l/m 2 min 0 min 0,000 mm 0,7 UV-I 138 W/m 4,6 C -2,6 C 46,7 km/h (6 Bft) 98 %
04.12.2020 09:42 7,2 C 83 % 982,5 hPa 0,0 l/m 2 min 0 min 0,000 mm 0,7 UV-I 134 W/m 4,5 C -0,1 C 30,6 km/h (5 Bft) 96 %
04.12.2020 09:40 7,2 C 82 % 982,5 hPa 0,0 l/m 2 min 0 min 0,000 mm 0,7 UV-I 120 W/m 4,3 C -0,4 C 32,2 km/h (5 Bft) 98 %
04.12.2020 09:38 7,2 C 82 % 982,4 hPa 0,0 l/m 0 min 0 min 0,000 mm 0,7 UV-I 77 W/m 4,3 C -0,5 C 33,8 km/h (5 Bft) 98 %
04.12.2020 09:36 7,2 C 82 % 982,5 hPa 0,0 l/m 0 min 0 min 0,000 mm 0,3 UV-I 44 W/m 4,3 C 0,8 C 25,7 km/h (4 Bft) 98 %
04.12.2020 09:34 7,2 C 82 % 982,4 hPa 0,0 l/m 0 min 0 min 0,000 mm 0,0 UV-I 37 W/m 4,3 C -0,9 C 35,4 km/h (5 Bft) 98 %
04.12.2020 09:32 7,2 C 82 % 982,5 hPa 0,0 l/m 0 min 0 min 0,000 mm 0,0 UV-I 35 W/m 4,3 C -0,3 C 29,0 km/h (5 Bft) 98 %
04.12.2020 09:30 7,2 C 82 % 982,4 hPa 0,0 l/m 0 min 0 min 0,000 mm 0,0 UV-I 38 W/m 4,3 C 0,4 C 30,6 km/h (5 Bft) 97 %
04.12.2020 09:28 7,2 C 82 % 982,4 hPa 0,0 l/m 0 min 0 min 0,000 mm 0,6 UV-I 55 W/m 4,3 C 0,2 C 30,6 km/h (5 Bft) 97 %
04.12.2020 09:26 7,2 C 83 % 982,6 hPa 0,0 l/m 0 min 0 min 0,000 mm 0,7 UV-I 62 W/m 4,5 C -1,0 C 35,4 km/h (5 Bft) 94 %
04.12.2020 09:24 7,2 C 83 % 982,6 hPa 0,0 l/m 0 min 0 min 0,000 mm 0,2 UV-I 46 W/m 4,5 C -1,3 C 45,1 km/h (6 Bft) 100 %
04.12.2020 09:22 7,1 C 83 % 982,5 hPa 0,0 l/m 0 min 0 min 0,000 mm 0,6 UV-I 44 W/m 4,4 C -2,1 C 37,0 km/h (5 Bft) 98 %
04.12.2020 09:20 7,1 C 83 % 982,5 hPa 0,0 l/m 0 min 0 min 0,000 mm 0,3 UV-I 43 W/m 4,4 C -1,4 C 40,2 km/h (6 Bft) 100 %
04.12.2020 09:18 7,1 C 83 % 982,5 hPa 0,0 l/m 0 min 0 min 0,000 mm 0,4 UV-I 45 W/m 4,4 C 0,8 C 24,1 km/h (4 Bft) 100 %
04.12.2020 09:16 7,1 C 83 % 982,5 hPa 0,0 l/m 0 min 0 min 0,000 mm 0,4 UV-I 44 W/m 4,4 C 1,6 C 24,1 km/h (4 Bft) 100 %
04.12.2020 09:14 7,1 C 83 % 982,6 hPa 0,0 l/m 0 min 0 min 0,000 mm 0,0 UV-I 41 W/m 4,4 C -0,5 C 25,7 km/h (4 Bft) 100 %
04.12.2020 09:12 7,1 C 84 % 982,5 hPa 0,0 l/m 0 min 0 min 0,000 mm 0,0 UV-I 39 W/m 4,6 C -1,4 C 37,0 km/h (5 Bft) 100 %
04.12.2020 09:10 7,0 C 84 % 982,5 hPa 0,0 l/m 0 min 0 min 0,000 mm 0,0 UV-I 37 W/m 4,5 C -1,7 C 33,8 km/h (5 Bft) 100 %
04.12.2020 09:08 7,0 C 84 % 982,4 hPa 0,0 l/m 0 min 0 min 0,000 mm 0,0 UV-I 37 W/m 4,5 C 1,7 C 30,6 km/h (5 Bft) 98 %
04.12.2020 09:06 7,0 C 84 % 982,4 hPa 0,0 l/m 0 min 0 min 0,000 mm 0,0 UV-I 37 W/m 4,5 C -0,1 C 30,6 km/h (5 Bft) 100 %
04.12.2020 09:04 7,0 C 84 % 982,4 hPa 0,0 l/m 0 min 0 min 0,026 mm 0,0 UV-I 35 W/m 4,5 C -0,8 C 37,0 km/h (5 Bft) 100 %
04.12.2020 09:00 7,0 C 84 % 982,6 hPa 0,0 l/m 0 min 0 min 0,000 mm 0,0 UV-I 31 W/m 4,5 C 1,1 C 30,6 km/h (5 Bft) 98 %
04.12.2020 08:58 7,0 C 84 % 982,6 hPa 0,0 l/m 0 min 0 min 0,000 mm 0,0 UV-I 28 W/m 4,5 C 1,7 C 22,5 km/h (4 Bft) 96 %
04.12.2020 08:56 7,0 C 84 % 982,6 hPa 0,0 l/m 0 min 0 min 0,000 mm 0,0 UV-I 26 W/m 4,5 C 0,7 C 30,6 km/h (5 Bft) 98 %
04.12.2020 08:54 6,9 C 84 % 982,5 hPa 0,0 l/m 0 min 0 min 0,000 mm 0,0 UV-I 23 W/m 4,4 C 0,0 C 30,6 km/h (5 Bft) 98 %
04.12.2020 08:52 7,0 C 84 % 982,5 hPa 0,0 l/m 0 min 0 min 0,000 mm 0,0 UV-I 21 W/m 4,5 C -2,3 C 38,6 km/h (5 Bft) 98 %
04.12.2020 08:50 6,9 C 84 % 982,5 hPa 0,0 l/m 0 min 0 min 0,000 mm 0,0 UV-I 20 W/m 4,4 C -0,2 C 30,6 km/h (5 Bft) 96 %
04.12.2020 08:48 6,9 C 84 % 982,4 hPa 0,0 l/m 0 min 0 min 0,000 mm 0,0 UV-I 20 W/m 4,4 C -0,9 C 32,2 km/h (5 Bft) 96 %
04.12.2020 08:46 6,9 C 84 % 982,3 hPa 0,0 l/m 0 min 0 min 0,000 mm 0,0 UV-I 20 W/m 4,4 C 0,6 C 32,2 km/h (5 Bft) 96 %
04.12.2020 08:44 6,9 C 84 % 982,4 hPa 0,0 l/m 0 min 0 min 0,000 mm 0,0 UV-I 19 W/m 4,4 C -0,1 C 29,0 km/h (5 Bft) 94 %
04.12.2020 08:42 6,9 C 84 % 982,3 hPa 0,0 l/m 0 min 0 min 0,000 mm 0,0 UV-I 17 W/m 4,4 C 3,5 C 16,1 km/h (3 Bft) 91 %
04.12.2020 08:40 7,0 C 85 % 982,3 hPa 0,0 l/m 0 min 0 min 0,000 mm 0,0 UV-I 14 W/m 4,7 C 3,0 C 19,3 km/h (3 Bft) 96 %
04.12.2020 08:38 7,0 C 85 % 982,3 hPa 0,0 l/m 0 min 0 min 0,000 mm 0,0 UV-I 13 W/m 4,7 C -0,6 C 27,4 km/h (4 Bft) 96 %
04.12.2020 08:36 7,1 C 85 % 982,3 hPa 0,0 l/m 0 min 0 min 0,000 mm 0,0 UV-I 12 W/m 4,8 C 0,1 C 27,4 km/h (4 Bft) 91 %
04.12.2020 08:34 7,0 C 85 % 982,1 hPa 0,0 l/m 0 min 0 min 0,000 mm 0,0 UV-I 10 W/m 4,7 C -3,0 C 41,8 km/h (6 Bft) 96 %
04.12.2020 08:32 7,0 C 86 % 982,2 hPa 0,0 l/m 0 min 0 min 0,000 mm 0,0 UV-I 9 W/m 4,8 C 1,9 C 20,9 km/h (4 Bft) 96 %
04.12.2020 08:30 7,0 C 86 % 982,1 hPa 0,0 l/m 0 min 0 min 0,000 mm 0,0 UV-I 8 W/m 4,8 C 0,5 C 24,1 km/h (4 Bft) 93 %
04.12.2020 08:28 7,0 C 86 % 982,2 hPa 0,0 l/m 0 min 0 min 0,000 mm 0,0 UV-I 7 W/m 4,8 C 2,4 C 22,5 km/h (4 Bft) 94 %
04.12.2020 08:26 7,1 C 86 % 982,1 hPa 0,0 l/m 0 min 0 min 0,000 mm 0,0 UV-I 6 W/m 4,9 C 4,5 C 17,7 km/h (3 Bft) 94 %
04.12.2020 08:24 7,1 C 87 % 982,1 hPa 0,0 l/m 0 min 0 min 0,000 mm 0,0 UV-I 5 W/m 5,1 C 0,1 C 30,6 km/h (5 Bft) 96 %
04.12.2020 08:22 7,1 C 87 % 982,2 hPa 0,0 l/m 0 min 0 min 0,000 mm 0,0 UV-I 4 W/m 5,1 C 4,1 C 22,5 km/h (4 Bft) 98 %
04.12.2020 08:20 7,1 C 87 % 982,1 hPa 0,0 l/m 0 min 0 min 0,000 mm 0,0 UV-I 4 W/m 5,1 C 4,3 C 16,1 km/h (3 Bft) 94 %
04.12.2020 08:18 7,2 C 87 % 982,1 hPa 0,0 l/m 0 min 0 min 0,000 mm 0,0 UV-I 2 W/m 5,2 C 2,5 C 33,8 km/h (5 Bft) 98 %
04.12.2020 08:16 7,2 C 87 % 982,2 hPa 0,0 l/m 0 min 0 min 0,000 mm 0,0 UV-I 0 W/m 5,2 C 4,6 C 27,4 km/h (4 Bft) 96 %
04.12.2020 08:14 7,2 C 87 % 982,1 hPa 0,0 l/m 0 min 0 min 0,000 mm 0,0 UV-I 0 W/m 5,2 C 3,8 C 17,7 km/h (3 Bft) 98 %
04.12.2020 08:12 7,2 C 87 % 982,1 hPa 0,0 l/m 0 min 0 min 0,000 mm 0,0 UV-I 0 W/m 5,2 C 6,4 C 11,3 km/h (2 Bft) 95 %
04.12.2020 08:10 7,2 C 87 % 982,0 hPa 0,0 l/m 0 min 0 min 0,000 mm 0,0 UV-I 0 W/m 5,2 C 5,8 C 12,9 km/h (3 Bft) 98 %
04.12.2020 08:08 7,2 C 87 % 982,0 hPa 0,0 l/m 0 min 0 min 0,000 mm 0,0 UV-I 0 W/m 5,2 C 4,9 C 12,9 km/h (3 Bft) 98 %
04.12.2020 08:06 7,2 C 87 % 981,9 hPa 0,0 l/m 0 min 0 min 0,000 mm 0,0 UV-I 0 W/m 5,2 C 2,7 C 20,9 km/h (4 Bft) 95 %
04.12.2020 08:04 7,2 C 87 % 981,8 hPa 0,0 l/m 0 min 0 min 0,025 mm 0,0 UV-I 0 W/m 5,2 C 1,5 C 22,5 km/h (4 Bft) 95 %
04.12.2020 08:00 7,2 C 87 % 981,8 hPa 0,0 l/m 0 min 0 min 0,000 mm 0,0 UV-I 0 W/m 5,2 C 3,2 C 17,7 km/h (3 Bft) 93 %
04.12.2020 07:58 7,2 C 87 % 981,7 hPa 0,0 l/m 0 min 0 min 0,000 mm 0,0 UV-I 0 W/m 5,2 C 3,9 C 16,1 km/h (3 Bft) 95 %
04.12.2020 07:56 7,2 C 87 % 981,7 hPa 0,0 l/m 0 min 0 min 0,000 mm 0,0 UV-I 0 W/m 5,2 C 6,2 C 11,3 km/h (2 Bft) 93 %
04.12.2020 07:54 7,2 C 87 % 981,7 hPa 0,0 l/m 0 min 0 min 0,000 mm 0,0 UV-I 0 W/m 5,2 C 3,2 C 17,7 km/h (3 Bft) 94 %
04.12.2020 07:52 7,2 C 87 % 981,5 hPa 0,0 l/m 0 min 0 min 0,000 mm 0,0 UV-I 0 W/m 5,2 C 4,4 C 16,1 km/h (3 Bft) 96 %
04.12.2020 07:50 7,2 C 87 % 981,5 hPa 0,0 l/m 0 min 0 min 0,000 mm 0,0 UV-I 0 W/m 5,2 C 5,3 C 12,9 km/h (3 Bft) 92 %
04.12.2020 07:48 7,2 C 87 % 981,6 hPa 0,0 l/m 0 min 0 min 0,000 mm 0,0 UV-I 0 W/m 5,2 C 4,6 C 12,9 km/h (3 Bft) 97 %
04.12.2020 07:46 7,3 C 86 % 981,5 hPa 0,0 l/m 0 min 0 min 0,000 mm 0,0 UV-I 0 W/m 5,1 C 4,9 C 12,9 km/h (3 Bft) 96 %
04.12.2020 07:44 7,3 C 86 % 981,6 hPa 0,0 l/m 0 min 0 min 0,000 mm 0,0 UV-I 0 W/m 5,1 C 3,5 C 16,1 km/h (3 Bft) 94 %
04.12.2020 07:42 7,3 C 86 % 981,6 hPa 0,0 l/m 0 min 0 min 0,000 mm 0,0 UV-I 0 W/m 5,1 C 6,8 C 12,9 km/h (3 Bft) 94 %
04.12.2020 07:40 7,3 C 86 % 981,5 hPa 0,0 l/m 0 min 0 min 0,000 mm 0,0 UV-I 0 W/m 5,1 C 7,3 C 8,0 km/h (2 Bft) 98 %
04.12.2020 07:38 7,3 C 86 % 981,5 hPa 0,0 l/m 0 min 0 min 0,000 mm 0,0 UV-I 0 W/m 5,1 C 6,6 C 11,3 km/h (2 Bft) 98 %
04.12.2020 07:36 7,3 C 86 % 981,5 hPa 0,0 l/m 0 min 0 min 0,000 mm 0,0 UV-I 0 W/m 5,1 C 2,9 C 24,1 km/h (4 Bft) 100 %
04.12.2020 07:34 7,3 C 86 % 981,5 hPa 0,0 l/m 0 min 0 min 0,000 mm 0,0 UV-I 0 W/m 5,1 C 0,7 C 24,1 km/h (4 Bft) 100 %
04.12.2020 07:32 7,3 C 86 % 981,5 hPa 0,0 l/m 0 min 0 min 0,000 mm 0,0 UV-I 0 W/m 5,1 C 2,3 C 22,5 km/h (4 Bft) 96 %
04.12.2020 07:30 7,3 C 87 % 981,5 hPa 0,0 l/m 0 min 0 min 0,000 mm 0,0 UV-I 0 W/m 5,3 C 5,1 C 16,1 km/h (3 Bft) 100 %
04.12.2020 07:28 7,3 C 87 % 981,5 hPa 0,0 l/m 0 min 0 min 0,000 mm 0,0 UV-I 0 W/m 5,3 C 3,2 C 19,3 km/h (3 Bft) 98 %
04.12.2020 07:26 7,2 C 87 % 981,5 hPa 0,0 l/m 0 min 0 min 0,000 mm 0,0 UV-I 0 W/m 5,2 C 2,7 C 19,3 km/h (3 Bft) 98 %
04.12.2020 07:24 7,3 C 87 % 981,5 hPa 0,0 l/m 0 min 0 min 0,000 mm 0,0 UV-I 0 W/m 5,3 C 3,0 C 16,1 km/h (3 Bft) 98 %
04.12.2020 07:22 7,3 C 87 % 981,3 hPa 0,0 l/m 0 min 0 min 0,000 mm 0,0 UV-I 0 W/m 5,3 C 3,2 C 19,3 km/h (3 Bft) 98 %
04.12.2020 07:20 7,3 C 87 % 981,3 hPa 0,0 l/m 0 min 0 min 0,000 mm 0,0 UV-I 0 W/m 5,3 C 2,3 C 20,9 km/h (4 Bft) 98 %
04.12.2020 07:18 7,2 C 88 % 981,3 hPa 0,0 l/m 0 min 0 min 0,000 mm 0,0 UV-I 0 W/m 5,3 C 1,7 C 22,5 km/h (4 Bft) 96 %
04.12.2020 07:16 7,2 C 88 % 981,2 hPa 0,0 l/m 0 min 0 min 0,000 mm 0,0 UV-I 0 W/m 5,3 C 0,7 C 25,7 km/h (4 Bft) 96 %
04.12.2020 07:14 7,2 C 89 % 981,2 hPa 0,0 l/m 0 min 0 min 0,000 mm 0,0 UV-I 0 W/m 5,5 C 2,7 C 29,0 km/h (5 Bft) 98 %
04.12.2020 07:12 7,2 C 89 % 981,2 hPa 0,0 l/m 0 min 0 min 0,000 mm 0,0 UV-I 0 W/m 5,5 C 4,6 C 17,7 km/h (3 Bft) 98 %
04.12.2020 07:10 7,1 C 89 % 981,1 hPa 0,0 l/m 0 min 0 min 0,000 mm 0,0 UV-I 0 W/m 5,4 C 2,6 C 20,9 km/h (4 Bft) 96 %
04.12.2020 07:08 7,0 C 89 % 981,2 hPa 0,0 l/m 0 min 0 min 0,000 mm 0,0 UV-I 0 W/m 5,3 C 1,8 C 25,7 km/h (4 Bft) 98 %
04.12.2020 07:06 7,0 C 90 % 981,1 hPa 0,0 l/m 0 min 0 min 0,000 mm 0,0 UV-I 0 W/m 5,5 C 4,8 C 16,1 km/h (3 Bft) 98 %
04.12.2020 07:04 6,9 C 90 % 981,1 hPa 0,0 l/m 0 min 0 min 0,000 mm 0,0 UV-I 0 W/m 5,4 C 5,1 C 12,9 km/h (3 Bft) 99 %
04.12.2020 07:00 6,9 C 91 % 981,1 hPa 0,0 l/m 0 min 0 min 0,000 mm 0,0 UV-I 0 W/m 5,5 C 3,4 C 17,7 km/h (3 Bft) 98 %
04.12.2020 06:58 6,8 C 91 % 981,0 hPa 0,0 l/m 0 min 0 min 0,000 mm 0,0 UV-I 0 W/m 5,4 C 2,5 C 20,9 km/h (4 Bft) 100 %
04.12.2020 06:56 6,7 C 91 % 981,0 hPa 0,0 l/m 0 min 0 min 0,000 mm 0,0 UV-I 0 W/m 5,3 C 5,8 C 12,9 km/h (3 Bft) 100 %
04.12.2020 06:54 6,7 C 92 % 981,0 hPa 0,0 l/m 0 min 0 min 0,000 mm 0,0 UV-I 0 W/m 5,5 C 4,3 C 14,5 km/h (3 Bft) 100 %
04.12.2020 06:52 6,6 C 92 % 981,0 hPa 0,0 l/m 0 min 0 min 0,000 mm 0,0 UV-I 0 W/m 5,4 C 3,8 C 17,7 km/h (3 Bft) 100 %
04.12.2020 06:50 6,6 C 92 % 981,0 hPa 0,0 l/m 0 min 0 min 0,000 mm 0,0 UV-I 0 W/m 5,4 C 5,6 C 11,3 km/h (2 Bft) 98 %
04.12.2020 06:48 6,5 C 93 % 980,9 hPa 0,0 l/m 0 min 0 min 0,000 mm 0,0 UV-I 0 W/m 5,5 C 4,5 C 12,9 km/h (3 Bft) 100 %
04.12.2020 06:46 6,3 C 93 % 980,8 hPa 0,0 l/m 0 min 0 min 0,000 mm 0,0 UV-I 0 W/m 5,3 C 1,3 C 22,5 km/h (4 Bft) 98 %
04.12.2020 06:44 6,2 C 93 % 980,9 hPa 0,0 l/m 0 min 0 min 0,000 mm 0,0 UV-I 0 W/m 5,2 C 4,1 C 16,1 km/h (3 Bft) 100 %
04.12.2020 06:42 6,1 C 94 % 980,8 hPa 0,0 l/m 0 min 0 min 0,000 mm 0,0 UV-I 0 W/m 5,2 C 3,6 C 14,5 km/h (3 Bft) 98 %
04.12.2020 06:40 5,9 C 94 % 980,9 hPa 0,0 l/m 0 min 0 min 0,000 mm 0,0 UV-I 0 W/m 5,0 C 1,9 C 16,1 km/h (3 Bft) 100 %
04.12.2020 06:38 5,8 C 94 % 980,9 hPa 0,0 l/m 0 min 0 min 0,000 mm 0,0 UV-I 0 W/m 4,9 C 4,5 C 14,5 km/h (3 Bft) 100 %
04.12.2020 06:36 5,7 C 94 % 980,9 hPa 0,0 l/m 0 min 0 min 0,000 mm 0,0 UV-I 0 W/m 4,8 C 3,1 C 14,5 km/h (3 Bft) 100 %
04.12.2020 06:34 5,5 C 94 % 980,9 hPa 0,0 l/m 0 min 0 min 0,000 mm 0,0 UV-I 0 W/m 4,6 C 3,8 C 14,5 km/h (3 Bft) 98 %
04.12.2020 06:32 5,4 C 93 % 980,9 hPa 0,0 l/m 0 min 0 min 0,000 mm 0,0 UV-I 0 W/m 4,4 C 2,5 C 17,7 km/h (3 Bft) 96 %
04.12.2020 06:30 5,4 C 94 % 980,8 hPa 0,0 l/m 0 min 0 min 0,000 mm 0,0 UV-I 0 W/m 4,5 C 2,2 C 16,1 km/h (3 Bft) 100 %
04.12.2020 06:28 5,4 C 94 % 980,9 hPa 0,0 l/m 0 min 0 min 0,000 mm 0,0 UV-I 0 W/m 4,5 C 2,1 C 17,7 km/h (3 Bft) 100 %
04.12.2020 06:26 5,4 C 94 % 980,9 hPa 0,0 l/m 0 min 0 min 0,000 mm 0,0 UV-I 0 W/m 4,5 C 1,0 C 16,1 km/h (3 Bft) 100 %
04.12.2020 06:24 5,3 C 94 % 980,8 hPa 0,0 l/m 0 min 0 min 0,000 mm 0,0 UV-I 0 W/m 4,4 C 1,0 C 22,5 km/h (4 Bft) 98 %
04.12.2020 06:20 5,3 C 94 % 980,9 hPa 0,0 l/m 0 min 0 min 0,000 mm 0,0 UV-I 0 W/m 4,4 C 0,6 C 16,1 km/h (3 Bft) 100 %
04.12.2020 06:18 5,2 C 94 % 980,9 hPa 0,0 l/m 0 min 0 min 0,000 mm 0,0 UV-I 0 W/m 4,3 C 2,4 C 14,5 km/h (3 Bft) 98 %
04.12.2020 06:16 5,2 C 94 % 980,9 hPa 0,0 l/m 0 min 0 min 0,000 mm 0,0 UV-I 0 W/m 4,3 C 3,0 C 17,7 km/h (3 Bft) 98 %
04.12.2020 06:14 5,2 C 94 % 980,9 hPa 0,0 l/m 0 min 0 min 0,000 mm 0,0 UV-I 0 W/m 4,3 C -0,3 C 19,3 km/h (3 Bft) 96 %
04.12.2020 06:12 5,1 C 94 % 980,9 hPa 0,0 l/m 0 min 0 min 0,000 mm 0,0 UV-I 0 W/m 4,2 C 1,1 C 16,1 km/h (3 Bft) 98 %
04.12.2020 06:10 5,1 C 94 % 980,8 hPa 0,0 l/m 0 min 0 min 0,000 mm 0,0 UV-I 0 W/m 4,2 C 0,2 C 19,3 km/h (3 Bft) 96 %
04.12.2020 06:08 5,1 C 94 % 980,8 hPa 0,0 l/m 0 min 0 min 0,000 mm 0,0 UV-I 0 W/m 4,2 C 2,9 C 12,9 km/h (3 Bft) 98 %
04.12.2020 06:06 5,1 C 94 % 980,8 hPa 0,0 l/m 0 min 0 min 0,000 mm 0,0 UV-I 0 W/m 4,2 C 3,4 C 12,9 km/h (3 Bft) 94 %
04.12.2020 06:04 5,0 C 94 % 980,7 hPa 0,0 l/m 0 min 0 min 0,000 mm 0,0 UV-I 0 W/m 4,1 C 1,8 C 16,1 km/h (3 Bft) 96 %
04.12.2020 06:00 4,9 C 94 % 980,6 hPa 0,0 l/m 0 min 0 min 0,000 mm 0,0 UV-I 0 W/m 4,0 C 0,1 C 20,9 km/h (4 Bft) 94 %
04.12.2020 05:58 4,9 C 94 % 980,7 hPa 0,0 l/m 0 min 0 min 0,000 mm 0,0 UV-I 0 W/m 4,0 C 2,0 C 14,5 km/h (3 Bft) 93 %
04.12.2020 05:56 4,9 C 94 % 980,7 hPa 0,0 l/m 0 min 0 min 0,000 mm 0,0 UV-I 0 W/m 4,0 C 3,3 C 11,3 km/h (2 Bft) 96 %
04.12.2020 05:54 4,9 C 94 % 980,8 hPa 0,0 l/m 0 min 0 min 0,000 mm 0,0 UV-I 0 W/m 4,0 C 3,8 C 14,5 km/h (3 Bft) 94 %
04.12.2020 05:52 4,8 C 94 % 980,7 hPa 0,0 l/m 0 min 0 min 0,000 mm 0,0 UV-I 0 W/m 3,9 C 4,8 C 8,0 km/h (2 Bft) 96 %
04.12.2020 05:50 4,8 C 94 % 980,8 hPa 0,0 l/m 0 min 0 min 0,000 mm 0,0 UV-I 0 W/m 3,9 C 4,8 C 12,9 km/h (3 Bft) 95 %
04.12.2020 05:48 4,8 C 94 % 980,8 hPa 0,0 l/m 0 min 0 min 0,000 mm 0,0 UV-I 0 W/m 3,9 C 4,8 C 12,9 km/h (3 Bft) 98 %
04.12.2020 05:46 4,8 C 94 % 980,8 hPa 0,0 l/m 0 min 0 min 0,000 mm 0,0 UV-I 0 W/m 3,9 C 4,8 C 8,0 km/h (2 Bft) 100 %
04.12.2020 05:44 4,8 C 94 % 980,8 hPa 0,0 l/m 0 min 0 min 0,000 mm 0,0 UV-I 0 W/m 3,9 C 4,0 C 12,9 km/h (3 Bft) 98 %
04.12.2020 05:42 4,8 C 94 % 980,7 hPa 0,0 l/m 0 min 0 min 0,000 mm 0,0 UV-I 0 W/m 3,9 C 4,8 C 8,0 km/h (2 Bft) 98 %
04.12.2020 05:40 4,8 C 94 % 980,8 hPa 0,0 l/m 0 min 0 min 0,000 mm 0,0 UV-I 0 W/m 3,9 C 4,8 C 8,0 km/h (2 Bft) 100 %
04.12.2020 05:38 4,7 C 94 % 980,7 hPa 0,0 l/m 0 min 0 min 0,000 mm 0,0 UV-I 0 W/m 3,8 C 4,7 C 8,0 km/h (2 Bft) 100 %
04.12.2020 05:36 4,7 C 94 % 980,7 hPa 0,0 l/m 0 min 0 min 0,000 mm 0,0 UV-I 0 W/m 3,8 C 4,6 C 9,7 km/h (2 Bft) 100 %
04.12.2020 05:34 4,7 C 94 % 980,7 hPa 0,0 l/m 0 min 0 min 0,000 mm 0,0 UV-I 0 W/m 3,8 C 4,4 C 9,7 km/h (2 Bft) 96 %
04.12.2020 05:32 4,7 C 95 % 980,7 hPa 0,0 l/m 0 min 0 min 0,000 mm 0,0 UV-I 0 W/m 4,0 C 2,4 C 16,1 km/h (3 Bft) 100 %
04.12.2020 05:30 4,6 C 95 % 980,5 hPa 0,0 l/m 0 min 0 min 0,000 mm 0,0 UV-I 0 W/m 3,9 C 0,7 C 17,7 km/h (3 Bft) 100 %
04.12.2020 05:28 4,6 C 95 % 980,5 hPa 0,0 l/m 0 min 0 min 0,000 mm 0,0 UV-I 0 W/m 3,9 C 3,5 C 12,9 km/h (3 Bft) 100 %
04.12.2020 05:26 4,6 C 95 % 980,4 hPa 0,0 l/m 0 min 0 min 0,000 mm 0,0 UV-I 0 W/m 3,9 C 2,4 C 14,5 km/h (3 Bft) 100 %
04.12.2020 05:24 4,5 C 95 % 980,4 hPa 0,0 l/m 0 min 0 min 0,000 mm 0,0 UV-I 0 W/m 3,8 C 1,6 C 16,1 km/h (3 Bft) 100 %
04.12.2020 05:22 4,4 C 95 % 980,4 hPa 0,0 l/m 0 min 0 min 0,000 mm 0,0 UV-I 0 W/m 3,7 C -0,4 C 19,3 km/h (3 Bft) 100 %
04.12.2020 05:20 4,4 C 95 % 980,3 hPa 0,0 l/m 0 min 0 min 0,000 mm 0,0 UV-I 0 W/m 3,7 C -0,2 C 20,9 km/h (4 Bft) 100 %
04.12.2020 05:18 4,4 C 95 % 980,3 hPa 0,0 l/m 0 min 0 min 0,000 mm 0,0 UV-I 0 W/m 3,7 C 0,3 C 17,7 km/h (3 Bft) 100 %
04.12.2020 05:16 4,3 C 95 % 980,3 hPa 0,0 l/m 0 min 0 min 0,000 mm 0,0 UV-I 0 W/m 3,6 C -1,2 C 22,5 km/h (4 Bft) 100 %
04.12.2020 05:14 4,3 C 95 % 980,3 hPa 0,0 l/m 0 min 0 min 0,000 mm 0,0 UV-I 0 W/m 3,6 C -1,8 C 22,5 km/h (4 Bft) 100 %
04.12.2020 05:12 4,2 C 95 % 980,2 hPa 0,0 l/m 0 min 0 min 0,000 mm 0,0 UV-I 0 W/m 3,5 C -1,2 C 22,5 km/h (4 Bft) 100 %
04.12.2020 05:10 4,2 C 95 % 980,4 hPa 0,0 l/m 0 min 0 min 0,000 mm 0,0 UV-I 0 W/m 3,5 C -0,8 C 19,3 km/h (3 Bft) 98 %
04.12.2020 05:08 4,2 C 95 % 980,4 hPa 0,0 l/m 0 min 0 min 0,000 mm 0,0 UV-I 0 W/m 3,5 C -0,4 C 22,5 km/h (4 Bft) 100 %
04.12.2020 05:06 4,2 C 95 % 980,4 hPa 0,0 l/m 0 min 0 min 0,000 mm 0,0 UV-I 0 W/m 3,5 C -1,0 C 22,5 km/h (4 Bft) 100 %
04.12.2020 05:04 4,1 C 95 % 980,3 hPa 0,0 l/m 0 min 0 min 0,000 mm 0,0 UV-I 0 W/m 3,4 C -2,3 C 27,4 km/h (4 Bft) 98 %
04.12.2020 05:00 4,0 C 95 % 980,3 hPa 0,0 l/m 0 min 0 min 0,000 mm 0,0 UV-I 0 W/m 3,3 C -2,3 C 22,5 km/h (4 Bft) 100 %
04.12.2020 04:58 4,0 C 95 % 980,3 hPa 0,0 l/m 0 min 0 min 0,000 mm 0,0 UV-I 0 W/m 3,3 C -1,8 C 24,1 km/h (4 Bft) 100 %
04.12.2020 04:56 4,0 C 95 % 980,4 hPa 0,0 l/m 0 min 0 min 0,000 mm 0,0 UV-I 0 W/m 3,3 C -2,8 C 20,9 km/h (4 Bft) 100 %
04.12.2020 04:54 3,9 C 95 % 980,4 hPa 0,0 l/m 0 min 0 min 0,000 mm 0,0 UV-I 0 W/m 3,2 C -2,8 C 24,1 km/h (4 Bft) 100 %
04.12.2020 04:52 3,9 C 95 % 980,3 hPa 0,0 l/m 0 min 0 min 0,000 mm 0,0 UV-I 0 W/m 3,2 C -3,4 C 32,2 km/h (5 Bft) 100 %
04.12.2020 04:50 3,9 C 95 % 980,3 hPa 0,0 l/m 0 min 0 min 0,000 mm 0,0 UV-I 0 W/m 3,2 C -4,2 C 30,6 km/h (5 Bft) 100 %
04.12.2020 04:48 3,9 C 95 % 980,3 hPa 0,0 l/m 0 min 0 min 0,000 mm 0,0 UV-I 0 W/m 3,2 C -5,2 C 33,8 km/h (5 Bft) 100 %
04.12.2020 04:46 3,8 C 95 % 980,4 hPa 0,0 l/m 0 min 0 min 0,000 mm 0,0 UV-I 0 W/m 3,1 C -2,2 C 30,6 km/h (5 Bft) 98 %
04.12.2020 04:44 3,9 C 95 % 980,4 hPa 0,0 l/m 0 min 2 min 0,000 mm 0,0 UV-I 0 W/m 3,2 C -2,8 C 24,1 km/h (4 Bft) 94 %
04.12.2020 04:42 3,9 C 95 % 980,4 hPa 0,0 l/m 0 min 0 min 0,000 mm 0,0 UV-I 0 W/m 3,2 C -3,9 C 29,0 km/h (5 Bft) 100 %
04.12.2020 04:40 3,9 C 95 % 980,4 hPa 0,0 l/m 0 min 2 min 0,000 mm 0,0 UV-I 0 W/m 3,2 C -3,4 C 29,0 km/h (5 Bft) 94 %
04.12.2020 04:38 3,8 C 95 % 980,4 hPa 0,0 l/m 0 min 2 min 0,000 mm 0,0 UV-I 0 W/m 3,1 C -3,2 C 25,7 km/h (4 Bft) 94 %
04.12.2020 04:36 3,8 C 95 % 980,5 hPa 0,0 l/m 0 min 2 min 0,000 mm 0,0 UV-I 0 W/m 3,1 C -3,2 C 25,7 km/h (4 Bft) 94 %
04.12.2020 04:34 3,8 C 95 % 980,5 hPa 0,0 l/m 0 min 2 min 0,000 mm 0,0 UV-I 0 W/m 3,1 C -3,6 C 32,2 km/h (5 Bft) 98 %
04.12.2020 04:32 3,8 C 95 % 980,4 hPa 0,0 l/m 0 min 2 min 0,000 mm 0,0 UV-I 0 W/m 3,1 C -3,5 C 27,4 km/h (4 Bft) 98 %
04.12.2020 04:30 3,8 C 95 % 980,5 hPa 0,0 l/m 0 min 2 min 0,000 mm 0,0 UV-I 0 W/m 3,1 C -2,8 C 24,1 km/h (4 Bft) 96 %
04.12.2020 04:28 3,8 C 95 % 980,5 hPa 0,0 l/m 0 min 2 min 0,000 mm 0,0 UV-I 0 W/m 3,1 C -2,5 C 22,5 km/h (4 Bft) 91 %
04.12.2020 04:26 3,8 C 95 % 980,5 hPa 0,0 l/m 0 min 2 min 0,000 mm 0,0 UV-I 0 W/m 3,1 C -5,6 C 30,6 km/h (5 Bft) 96 %
04.12.2020 04:24 3,8 C 95 % 980,6 hPa 0,0 l/m 0 min 2 min 0,000 mm 0,0 UV-I 0 W/m 3,1 C -4,3 C 29,0 km/h (5 Bft) 96 %
04.12.2020 04:22 3,7 C 95 % 980,6 hPa 0,0 l/m 0 min 0 min 0,000 mm 0,0 UV-I 0 W/m 3,0 C -2,9 C 25,7 km/h (4 Bft) 96 %
04.12.2020 04:20 3,7 C 95 % 980,7 hPa 0,0 l/m 0 min 0 min 0,000 mm 0,0 UV-I 0 W/m 3,0 C -3,1 C 27,4 km/h (4 Bft) 96 %
04.12.2020 04:18 3,7 C 95 % 980,7 hPa 0,0 l/m 0 min 0 min 0,000 mm 0,0 UV-I 0 W/m 3,0 C -3,8 C 25,7 km/h (4 Bft) 96 %
04.12.2020 04:16 3,7 C 95 % 980,8 hPa 0,0 l/m 0 min 0 min 0,000 mm 0,0 UV-I 0 W/m 3,0 C -2,6 C 20,9 km/h (4 Bft) 96 %
04.12.2020 04:14 3,7 C 95 % 980,8 hPa 0,0 l/m 0 min 0 min 0,000 mm 0,0 UV-I 0 W/m 3,0 C -1,5 C 17,7 km/h (3 Bft) 98 %
04.12.2020 04:12 3,7 C 95 % 980,8 hPa 0,0 l/m 0 min 0 min 0,000 mm 0,0 UV-I 0 W/m 3,0 C -4,0 C 27,4 km/h (4 Bft) 93 %
04.12.2020 04:10 3,7 C 95 % 980,8 hPa 0,0 l/m 0 min 0 min 0,000 mm 0,0 UV-I 0 W/m 3,0 C -3,3 C 27,4 km/h (4 Bft) 96 %
04.12.2020 04:08 3,7 C 95 % 980,8 hPa 0,0 l/m 0 min 0 min 0,000 mm 0,0 UV-I 0 W/m 3,0 C -2,3 C 25,7 km/h (4 Bft) 96 %
04.12.2020 04:06 3,7 C 95 % 980,8 hPa 0,0 l/m 0 min 0 min 0,000 mm 0,0 UV-I 0 W/m 3,0 C -1,7 C 22,5 km/h (4 Bft) 94 %
04.12.2020 04:04 3,7 C 95 % 980,8 hPa 0,0 l/m 0 min 0 min 0,000 mm 0,0 UV-I 0 W/m 3,0 C -2,6 C 24,1 km/h (4 Bft) 96 %
04.12.2020 04:00 3,7 C 95 % 980,9 hPa 0,0 l/m 0 min 0 min 0,000 mm 0,0 UV-I 0 W/m 3,0 C -3,9 C 25,7 km/h (4 Bft) 98 %
04.12.2020 03:58 3,7 C 95 % 981,0 hPa 0,0 l/m 0 min 0 min 0,000 mm 0,0 UV-I 0 W/m 3,0 C -2,5 C 20,9 km/h (4 Bft) 98 %
04.12.2020 03:56 3,7 C 95 % 981,0 hPa 0,0 l/m 0 min 0 min 0,000 mm 0,0 UV-I 0 W/m 3,0 C -2,0 C 24,1 km/h (4 Bft) 98 %
04.12.2020 03:54 3,7 C 95 % 981,0 hPa 0,0 l/m 0 min 0 min 0,000 mm 0,0 UV-I 0 W/m 3,0 C -3,3 C 25,7 km/h (4 Bft) 98 %
04.12.2020 03:52 3,7 C 95 % 981,1 hPa 0,0 l/m 0 min 0 min 0,000 mm 0,0 UV-I 0 W/m 3,0 C -3,2 C 30,6 km/h (5 Bft) 98 %
04.12.2020 03:50 3,7 C 95 % 981,1 hPa 0,0 l/m 0 min 0 min 0,000 mm 0,0 UV-I 0 W/m 3,0 C -1,5 C 22,5 km/h (4 Bft) 98 %
04.12.2020 03:48 3,7 C 95 % 981,1 hPa 0,0 l/m 0 min 0 min 0,000 mm 0,0 UV-I 0 W/m 3,0 C -0,3 C 20,9 km/h (4 Bft) 94 %
04.12.2020 03:46 3,7 C 95 % 981,2 hPa 0,0 l/m 0 min 0 min 0,000 mm 0,0 UV-I 0 W/m 3,0 C -2,2 C 25,7 km/h (4 Bft) 95 %
04.12.2020 03:44 3,7 C 95 % 981,1 hPa 0,0 l/m 0 min 0 min 0,000 mm 0,0 UV-I 0 W/m 3,0 C -3,0 C 24,1 km/h (4 Bft) 98 %
04.12.2020 03:42 3,7 C 95 % 981,3 hPa 0,0 l/m 0 min 0 min 0,000 mm 0,0 UV-I 0 W/m 3,0 C -2,2 C 24,1 km/h (4 Bft) 98 %
04.12.2020 03:40 3,7 C 95 % 981,4 hPa 0,0 l/m 0 min 0 min 0,000 mm 0,0 UV-I 0 W/m 3,0 C -3,9 C 32,2 km/h (5 Bft) 98 %
04.12.2020 03:38 3,7 C 95 % 981,3 hPa 0,0 l/m 0 min 0 min 0,000 mm 0,0 UV-I 0 W/m 3,0 C -0,5 C 19,3 km/h (3 Bft) 96 %
04.12.2020 03:36 3,7 C 95 % 981,4 hPa 0,0 l/m 0 min 0 min 0,000 mm 0,0 UV-I 0 W/m 3,0 C -1,5 C 20,9 km/h (4 Bft) 98 %
04.12.2020 03:34 3,7 C 95 % 981,4 hPa 0,0 l/m 0 min 0 min 0,000 mm 0,0 UV-I 0 W/m 3,0 C -2,4 C 24,1 km/h (4 Bft) 94 %
04.12.2020 03:32 3,7 C 95 % 981,4 hPa 0,0 l/m 0 min 0 min 0,000 mm 0,0 UV-I 0 W/m 3,0 C -1,7 C 22,5 km/h (4 Bft) 98 %
04.12.2020 03:30 3,7 C 95 % 981,4 hPa 0,0 l/m 0 min 0 min 0,000 mm 0,0 UV-I 0 W/m 3,0 C -2,3 C 24,1 km/h (4 Bft) 98 %
04.12.2020 03:28 3,7 C 94 % 981,5 hPa 0,0 l/m 0 min 0 min 0,000 mm 0,0 UV-I 0 W/m 2,8 C -2,3 C 24,1 km/h (4 Bft) 96 %
04.12.2020 03:26 3,7 C 94 % 981,5 hPa 0,0 l/m 0 min 0 min 0,000 mm 0,0 UV-I 0 W/m 2,8 C -1,8 C 24,1 km/h (4 Bft) 96 %
04.12.2020 03:24 3,7 C 94 % 981,6 hPa 0,0 l/m 0 min 0 min 0,000 mm 0,0 UV-I 0 W/m 2,8 C -1,4 C 19,3 km/h (3 Bft) 98 %
04.12.2020 03:22 3,7 C 94 % 981,6 hPa 0,0 l/m 0 min 0 min 0,000 mm 0,0 UV-I 0 W/m 2,8 C -3,0 C 24,1 km/h (4 Bft) 98 %
04.12.2020 03:20 3,7 C 94 % 981,7 hPa 0,0 l/m 0 min 0 min 0,000 mm 0,0 UV-I 0 W/m 2,8 C -3,4 C 27,4 km/h (4 Bft) 96 %
04.12.2020 03:18 3,7 C 94 % 981,7 hPa 0,0 l/m 0 min 0 min 0,000 mm 0,0 UV-I 0 W/m 2,8 C -1,5 C 24,1 km/h (4 Bft) 91 %
04.12.2020 03:16 3,7 C 94 % 981,8 hPa 0,0 l/m 0 min 0 min 0,000 mm 0,0 UV-I 0 W/m 2,8 C -1,2 C 19,3 km/h (3 Bft) 96 %
04.12.2020 03:14 3,7 C 94 % 981,8 hPa 0,0 l/m 0 min 0 min 0,000 mm 0,0 UV-I 0 W/m 2,8 C -1,5 C 20,9 km/h (4 Bft) 94 %
04.12.2020 03:12 3,7 C 94 % 981,9 hPa 0,0 l/m 0 min 0 min 0,000 mm 0,0 UV-I 0 W/m 2,8 C -0,8 C 19,3 km/h (3 Bft) 96 %
04.12.2020 03:10 3,7 C 94 % 982,0 hPa 0,0 l/m 0 min 0 min 0,000 mm 0,0 UV-I 0 W/m 2,8 C -0,7 C 17,7 km/h (3 Bft) 96 %
04.12.2020 03:08 3,7 C 94 % 982,0 hPa 0,0 l/m 0 min 0 min 0,000 mm 0,0 UV-I 0 W/m 2,8 C -1,8 C 22,5 km/h (4 Bft) 96 %
04.12.2020 03:06 3,7 C 94 % 982,1 hPa 0,0 l/m 0 min 0 min 0,000 mm 0,0 UV-I 0 W/m 2,8 C -0,9 C 20,9 km/h (4 Bft) 94 %
04.12.2020 03:04 3,7 C 94 % 982,1 hPa 0,0 l/m 0 min 0 min 0,000 mm 0,0 UV-I 0 W/m 2,8 C -2,0 C 24,1 km/h (4 Bft) 94 %
04.12.2020 03:00 3,7 C 94 % 982,2 hPa 0,0 l/m 0 min 2 min 0,000 mm 0,0 UV-I 0 W/m 2,8 C -2,1 C 22,5 km/h (4 Bft) 96 %
04.12.2020 02:58 3,7 C 94 % 982,2 hPa 0,0 l/m 0 min 0 min 0,000 mm 0,0 UV-I 0 W/m 2,8 C -2,6 C 27,4 km/h (4 Bft) 92 %
04.12.2020 02:56 3,7 C 94 % 982,2 hPa 0,0 l/m 0 min 0 min 0,000 mm 0,0 UV-I 0 W/m 2,8 C -1,2 C 22,5 km/h (4 Bft) 96 %
04.12.2020 02:54 3,7 C 94 % 982,2 hPa 0,0 l/m 0 min 0 min 0,000 mm 0,0 UV-I 0 W/m 2,8 C -2,5 C 25,7 km/h (4 Bft) 94 %
04.12.2020 02:52 3,7 C 94 % 982,2 hPa 0,0 l/m 0 min 2 min 0,000 mm 0,0 UV-I 0 W/m 2,8 C -1,8 C 20,9 km/h (4 Bft) 94 %
04.12.2020 02:50 3,7 C 94 % 982,2 hPa 0,0 l/m 0 min 0 min 0,000 mm 0,0 UV-I 0 W/m 2,8 C -2,1 C 20,9 km/h (4 Bft) 100 %
04.12.2020 02:48 3,7 C 94 % 982,2 hPa 0,0 l/m 0 min 0 min 0,000 mm 0,0 UV-I 0 W/m 2,8 C -2,1 C 20,9 km/h (4 Bft) 95 %
04.12.2020 02:46 3,7 C 94 % 982,2 hPa 0,0 l/m 0 min 0 min 0,000 mm 0,0 UV-I 0 W/m 2,8 C -3,8 C 27,4 km/h (4 Bft) 100 %
04.12.2020 02:44 3,7 C 94 % 982,2 hPa 0,0 l/m 0 min 0 min 0,000 mm 0,0 UV-I 0 W/m 2,8 C -3,8 C 27,4 km/h (4 Bft) 96 %
04.12.2020 02:42 3,7 C 94 % 982,2 hPa 0,0 l/m 0 min 0 min 0,000 mm 0,0 UV-I 0 W/m 2,8 C -2,7 C 24,1 km/h (4 Bft) 98 %
04.12.2020 02:40 3,7 C 94 % 982,2 hPa 0,0 l/m 0 min 0 min 0,000 mm 0,0 UV-I 0 W/m 2,8 C -2,4 C 20,9 km/h (4 Bft) 98 %
04.12.2020 02:38 3,7 C 94 % 982,3 hPa 0,0 l/m 0 min 0 min 0,000 mm 0,0 UV-I 0 W/m 2,8 C -1,9 C 24,1 km/h (4 Bft) 98 %
04.12.2020 02:36 3,7 C 94 % 982,3 hPa 0,0 l/m 0 min 0 min 0,000 mm 0,0 UV-I 0 W/m 2,8 C -4,4 C 29,0 km/h (5 Bft) 98 %
04.12.2020 02:34 3,7 C 94 % 982,3 hPa 0,0 l/m 0 min 0 min 0,000 mm 0,0 UV-I 0 W/m 2,8 C -3,1 C 25,7 km/h (4 Bft) 98 %
04.12.2020 02:32 3,7 C 94 % 982,3 hPa 0,0 l/m 0 min 0 min 0,000 mm 0,0 UV-I 0 W/m 2,8 C -3,4 C 27,4 km/h (4 Bft) 98 %
04.12.2020 02:30 3,7 C 94 % 982,2 hPa 0,0 l/m 0 min 0 min 0,000 mm 0,0 UV-I 0 W/m 2,8 C -3,8 C 27,4 km/h (4 Bft) 96 %
04.12.2020 02:28 3,7 C 93 % 982,3 hPa 0,0 l/m 0 min 0 min 0,000 mm 0,0 UV-I 0 W/m 2,7 C -3,4 C 32,2 km/h (5 Bft) 98 %
04.12.2020 02:26 3,7 C 93 % 982,3 hPa 0,0 l/m 0 min 0 min 0,000 mm 0,0 UV-I 0 W/m 2,7 C -2,4 C 24,1 km/h (4 Bft) 96 %
04.12.2020 02:24 3,7 C 93 % 982,4 hPa 0,0 l/m 0 min 0 min 0,000 mm 0,0 UV-I 0 W/m 2,7 C -3,2 C 24,1 km/h (4 Bft) 98 %
04.12.2020 02:22 3,7 C 93 % 982,3 hPa 0,0 l/m 0 min 0 min 0,000 mm 0,0 UV-I 0 W/m 2,7 C -2,2 C 22,5 km/h (4 Bft) 93 %
04.12.2020 02:20 3,7 C 93 % 982,4 hPa 0,0 l/m 0 min 0 min 0,000 mm 0,0 UV-I 0 W/m 2,7 C -2,9 C 25,7 km/h (4 Bft) 98 %
04.12.2020 02:18 3,7 C 93 % 982,5 hPa 0,0 l/m 0 min 0 min 0,000 mm 0,0 UV-I 0 W/m 2,7 C -3,1 C 25,7 km/h (4 Bft) 98 %
04.12.2020 02:16 3,7 C 93 % 982,5 hPa 0,0 l/m 0 min 0 min 0,000 mm 0,0 UV-I 0 W/m 2,7 C -3,4 C 25,7 km/h (4 Bft) 98 %
04.12.2020 02:14 3,7 C 93 % 982,5 hPa 0,0 l/m 0 min 0 min 0,000 mm 0,0 UV-I 0 W/m 2,7 C -1,7 C 27,4 km/h (4 Bft) 98 %
04.12.2020 02:12 3,7 C 93 % 982,5 hPa 0,0 l/m 0 min 0 min 0,000 mm 0,0 UV-I 0 W/m 2,7 C -3,4 C 30,6 km/h (5 Bft) 100 %
04.12.2020 02:10 3,7 C 93 % 982,6 hPa 0,0 l/m 0 min 0 min 0,000 mm 0,0 UV-I 0 W/m 2,7 C -2,4 C 24,1 km/h (4 Bft) 100 %
04.12.2020 02:08 3,7 C 93 % 982,6 hPa 0,0 l/m 0 min 0 min 0,000 mm 0,0 UV-I 0 W/m 2,7 C -2,3 C 25,7 km/h (4 Bft) 98 %
04.12.2020 02:06 3,7 C 93 % 982,7 hPa 0,0 l/m 0 min 0 min 0,000 mm 0,0 UV-I 0 W/m 2,7 C -3,7 C 24,1 km/h (4 Bft) 100 %
04.12.2020 02:04 3,7 C 93 % 982,7 hPa 0,0 l/m 0 min 0 min 0,026 mm 0,0 UV-I 0 W/m 2,7 C -3,8 C 29,0 km/h (5 Bft) 98 %
04.12.2020 02:00 3,7 C 93 % 982,9 hPa 0,0 l/m 0 min 0 min 0,000 mm 0,0 UV-I 0 W/m 2,7 C -1,9 C 24,1 km/h (4 Bft) 100 %
04.12.2020 01:58 3,7 C 93 % 982,9 hPa 0,0 l/m 0 min 0 min 0,000 mm 0,0 UV-I 0 W/m 2,7 C -3,1 C 27,4 km/h (4 Bft) 98 %
04.12.2020 01:56 3,7 C 93 % 982,9 hPa 0,0 l/m 0 min 0 min 0,000 mm 0,0 UV-I 0 W/m 2,7 C -2,7 C 22,5 km/h (4 Bft) 98 %
04.12.2020 01:54 3,7 C 93 % 983,0 hPa 0,0 l/m 0 min 0 min 0,000 mm 0,0 UV-I 0 W/m 2,7 C -2,1 C 22,5 km/h (4 Bft) 98 %
04.12.2020 01:52 3,7 C 93 % 983,0 hPa 0,0 l/m 0 min 0 min 0,000 mm 0,0 UV-I 0 W/m 2,7 C -2,4 C 24,1 km/h (4 Bft) 98 %
04.12.2020 01:50 3,7 C 93 % 983,1 hPa 0,0 l/m 0 min 0 min 0,000 mm 0,0 UV-I 0 W/m 2,7 C -1,0 C 24,1 km/h (4 Bft) 96 %
04.12.2020 01:48 3,7 C 93 % 983,1 hPa 0,0 l/m 0 min 0 min 0,000 mm 0,0 UV-I 0 W/m 2,7 C -3,6 C 25,7 km/h (4 Bft) 98 %
04.12.2020 01:46 3,8 C 93 % 983,1 hPa 0,0 l/m 0 min 0 min 0,000 mm 0,0 UV-I 0 W/m 2,8 C -2,3 C 27,4 km/h (4 Bft) 98 %
04.12.2020 01:44 3,7 C 93 % 983,1 hPa 0,0 l/m 0 min 0 min 0,000 mm 0,0 UV-I 0 W/m 2,7 C -3,8 C 27,4 km/h (4 Bft) 98 %
04.12.2020 01:42 3,7 C 93 % 983,1 hPa 0,0 l/m 0 min 0 min 0,000 mm 0,0 UV-I 0 W/m 2,7 C -2,8 C 24,1 km/h (4 Bft) 98 %
04.12.2020 01:40 3,7 C 93 % 983,1 hPa 0,0 l/m 0 min 0 min 0,000 mm 0,0 UV-I 0 W/m 2,7 C -4,0 C 29,0 km/h (5 Bft) 96 %
04.12.2020 01:38 3,7 C 93 % 983,1 hPa 0,0 l/m 0 min 0 min 0,000 mm 0,0 UV-I 0 W/m 2,7 C -3,8 C 29,0 km/h (5 Bft) 96 %
04.12.2020 01:36 3,7 C 93 % 983,2 hPa 0,0 l/m 0 min 0 min 0,000 mm 0,0 UV-I 0 W/m 2,7 C -1,1 C 22,5 km/h (4 Bft) 98 %
04.12.2020 01:34 3,7 C 93 % 983,2 hPa 0,0 l/m 0 min 0 min 0,000 mm 0,0 UV-I 0 W/m 2,7 C -1,7 C 20,9 km/h (4 Bft) 100 %
04.12.2020 01:32 3,7 C 93 % 983,2 hPa 0,0 l/m 0 min 0 min 0,000 mm 0,0 UV-I 0 W/m 2,7 C -2,1 C 20,9 km/h (4 Bft) 94 %
04.12.2020 01:30 3,8 C 93 % 983,2 hPa 0,0 l/m 0 min 0 min 0,000 mm 0,0 UV-I 0 W/m 2,8 C -2,2 C 24,1 km/h (4 Bft) 98 %
04.12.2020 01:28 3,8 C 92 % 983,2 hPa 0,0 l/m 0 min 0 min 0,000 mm 0,0 UV-I 0 W/m 2,6 C -2,1 C 22,5 km/h (4 Bft) 100 %
04.12.2020 01:26 3,8 C 92 % 983,2 hPa 0,0 l/m 0 min 0 min 0,000 mm 0,0 UV-I 0 W/m 2,6 C -3,2 C 24,1 km/h (4 Bft) 98 %
04.12.2020 01:24 3,8 C 92 % 983,3 hPa 0,0 l/m 0 min 0 min 0,000 mm 0,0 UV-I 0 W/m 2,6 C -2,8 C 24,1 km/h (4 Bft) 98 %
04.12.2020 01:22 3,8 C 92 % 983,3 hPa 0,0 l/m 0 min 0 min 0,000 mm 0,0 UV-I 0 W/m 2,6 C -2,5 C 24,1 km/h (4 Bft) 96 %
04.12.2020 01:20 3,8 C 92 % 983,2 hPa 0,0 l/m 0 min 0 min 0,000 mm 0,0 UV-I 0 W/m 2,6 C -4,2 C 33,8 km/h (5 Bft) 98 %
04.12.2020 01:18 3,8 C 92 % 983,2 hPa 0,0 l/m 0 min 0 min 0,000 mm 0,0 UV-I 0 W/m 2,6 C -1,9 C 20,9 km/h (4 Bft) 100 %
04.12.2020 01:16 3,8 C 92 % 983,2 hPa 0,0 l/m 0 min 0 min 0,000 mm 0,0 UV-I 0 W/m 2,6 C -4,0 C 27,4 km/h (4 Bft) 98 %
04.12.2020 01:14 3,9 C 92 % 983,4 hPa 0,0 l/m 0 min 0 min 0,000 mm 0,0 UV-I 0 W/m 2,7 C -3,8 C 38,6 km/h (5 Bft) 98 %
04.12.2020 01:12 3,9 C 92 % 983,4 hPa 0,0 l/m 0 min 0 min 0,000 mm 0,0 UV-I 0 W/m 2,7 C -4,1 C 32,2 km/h (5 Bft) 100 %
04.12.2020 01:10 3,9 C 92 % 983,3 hPa 0,0 l/m 0 min 0 min 0,000 mm 0,0 UV-I 0 W/m 2,7 C -4,4 C 30,6 km/h (5 Bft) 100 %
04.12.2020 01:08 3,9 C 92 % 983,4 hPa 0,0 l/m 0 min 0 min 0,000 mm 0,0 UV-I 0 W/m 2,7 C -5,2 C 30,6 km/h (5 Bft) 100 %
04.12.2020 01:06 3,9 C 92 % 983,4 hPa 0,0 l/m 0 min 0 min 0,000 mm 0,0 UV-I 0 W/m 2,7 C -5,0 C 32,2 km/h (5 Bft) 100 %
04.12.2020 01:04 3,9 C 92 % 983,5 hPa 0,0 l/m 0 min 0 min 0,025 mm 0,0 UV-I 0 W/m 2,7 C -4,3 C 33,8 km/h (5 Bft) 99 %
04.12.2020 01:00 3,9 C 92 % 983,5 hPa 0,0 l/m 0 min 0 min 0,000 mm 0,0 UV-I 0 W/m 2,7 C -5,1 C 32,2 km/h (5 Bft) 96 %
04.12.2020 00:58 3,9 C 92 % 983,5 hPa 0,0 l/m 0 min 0 min 0,000 mm 0,0 UV-I 0 W/m 2,7 C -4,5 C 30,6 km/h (5 Bft) 100 %
04.12.2020 00:56 3,9 C 92 % 983,6 hPa 0,0 l/m 0 min 0 min 0,000 mm 0,0 UV-I 0 W/m 2,7 C -4,8 C 35,4 km/h (5 Bft) 98 %
04.12.2020 00:54 3,9 C 92 % 983,6 hPa 0,0 l/m 0 min 0 min 0,000 mm 0,0 UV-I 0 W/m 2,7 C -4,1 C 27,4 km/h (4 Bft) 96 %
04.12.2020 00:52 3,9 C 92 % 983,6 hPa 0,0 l/m 0 min 0 min 0,000 mm 0,0 UV-I 0 W/m 2,7 C -5,1 C 33,8 km/h (5 Bft) 98 %
04.12.2020 00:50 3,9 C 92 % 983,6 hPa 0,0 l/m 0 min 0 min 0,000 mm 0,0 UV-I 0 W/m 2,7 C -3,7 C 32,2 km/h (5 Bft) 96 %
04.12.2020 00:48 3,9 C 91 % 983,7 hPa 0,0 l/m 0 min 0 min 0,000 mm 0,0 UV-I 0 W/m 2,6 C -5,5 C 35,4 km/h (5 Bft) 98 %
04.12.2020 00:46 3,9 C 91 % 983,7 hPa 0,0 l/m 0 min 0 min 0,000 mm 0,0 UV-I 0 W/m 2,6 C -3,4 C 29,0 km/h (5 Bft) 98 %
04.12.2020 00:44 4,0 C 91 % 983,8 hPa 0,0 l/m 0 min 0 min 0,000 mm 0,0 UV-I 0 W/m 2,7 C -4,5 C 37,0 km/h (5 Bft) 96 %
04.12.2020 00:42 4,0 C 91 % 983,8 hPa 0,0 l/m 0 min 0 min 0,000 mm 0,0 UV-I 0 W/m 2,7 C -4,2 C 32,2 km/h (5 Bft) 96 %
04.12.2020 00:40 4,1 C 91 % 983,8 hPa 0,0 l/m 0 min 0 min 0,000 mm 0,0 UV-I 0 W/m 2,8 C -3,7 C 33,8 km/h (5 Bft) 98 %
04.12.2020 00:38 4,1 C 91 % 983,9 hPa 0,0 l/m 0 min 0 min 0,000 mm 0,0 UV-I 0 W/m 2,8 C -3,9 C 29,0 km/h (5 Bft) 98 %
04.12.2020 00:36 4,1 C 91 % 983,9 hPa 0,0 l/m 0 min 0 min 0,000 mm 0,0 UV-I 0 W/m 2,8 C -2,7 C 27,4 km/h (4 Bft) 98 %
04.12.2020 00:34 4,2 C 91 % 984,1 hPa 0,0 l/m 0 min 0 min 0,000 mm 0,0 UV-I 0 W/m 2,9 C -2,7 C 27,4 km/h (4 Bft) 96 %
04.12.2020 00:32 4,2 C 91 % 984,0 hPa 0,0 l/m 0 min 0 min 0,000 mm 0,0 UV-I 0 W/m 2,9 C -2,6 C 25,7 km/h (4 Bft) 96 %
04.12.2020 00:30 4,2 C 91 % 984,0 hPa 0,0 l/m 0 min 0 min 0,000 mm 0,0 UV-I 0 W/m 2,9 C -3,1 C 27,4 km/h (4 Bft) 96 %
04.12.2020 00:28 4,2 C 91 % 984,1 hPa 0,0 l/m 0 min 0 min 0,000 mm 0,0 UV-I 0 W/m 2,9 C -3,2 C 25,7 km/h (4 Bft) 96 %
04.12.2020 00:26 4,2 C 90 % 984,1 hPa 0,0 l/m 0 min 0 min 0,000 mm 0,0 UV-I 0 W/m 2,7 C -3,4 C 25,7 km/h (4 Bft) 94 %
04.12.2020 00:24 4,2 C 90 % 984,2 hPa 0,0 l/m 0 min 0 min 0,000 mm 0,0 UV-I 0 W/m 2,7 C -2,8 C 33,8 km/h (5 Bft) 95 %
04.12.2020 00:20 4,2 C 90 % 984,2 hPa 0,0 l/m 0 min 0 min 0,000 mm 0,0 UV-I 0 W/m 2,7 C -3,3 C 25,7 km/h (4 Bft) 96 %
04.12.2020 00:18 4,2 C 90 % 984,3 hPa 0,0 l/m 0 min 0 min 0,000 mm 0,0 UV-I 0 W/m 2,7 C -2,8 C 22,5 km/h (4 Bft) 98 %
04.12.2020 00:16 4,3 C 90 % 984,2 hPa 0,0 l/m 0 min 0 min 0,000 mm 0,0 UV-I 0 W/m 2,8 C -2,6 C 32,2 km/h (5 Bft) 98 %
04.12.2020 00:14 4,3 C 90 % 984,3 hPa 0,0 l/m 0 min 0 min 0,000 mm 0,0 UV-I 0 W/m 2,8 C -4,2 C 27,4 km/h (4 Bft) 98 %
04.12.2020 00:12 4,3 C 90 % 984,2 hPa 0,0 l/m 0 min 0 min 0,000 mm 0,0 UV-I 0 W/m 2,8 C -4,4 C 33,8 km/h (5 Bft) 100 %
04.12.2020 00:10 4,3 C 90 % 984,3 hPa 0,0 l/m 0 min 0 min 0,000 mm 0,0 UV-I 0 W/m 2,8 C -4,0 C 32,2 km/h (5 Bft) 98 %
04.12.2020 00:08 4,3 C 90 % 984,3 hPa 0,0 l/m 0 min 0 min 0,000 mm 0,0 UV-I 0 W/m 2,8 C -3,4 C 27,4 km/h (4 Bft) 98 %
04.12.2020 00:06 4,3 C 90 % 984,4 hPa 0,0 l/m 0 min 0 min 0,000 mm 0,0 UV-I 0 W/m 2,8 C -3,4 C 27,4 km/h (4 Bft) 98 %
04.12.2020 00:04 4,3 C 90 % 984,5 hPa 0,0 l/m 0 min 0 min 0,000 mm 0,0 UV-I 0 W/m 2,8 C -4,6 C 35,4 km/h (5 Bft) 100 %
04.12.2020 00:03 4,3 C 90 % 984,5 hPa 0,0 l/m 0 min 0 min 0,000 mm 0,0 UV-I 0 W/m 2,8 C -3,6 C 33,8 km/h (5 Bft) 100 %
04.12.2020 00:00 4,3 C 90 % 984,6 hPa 0,0 l/m 0 min 0 min 0,000 mm 0,0 UV-I 0 W/m 2,8 C -3,4 C 30,6 km/h (5 Bft) 100 %
03.12.2020 23:58 4,3 C 90 % 984,6 hPa 0,0 l/m 0 min 0 min 0,000 mm 0,0 UV-I 0 W/m 2,8 C -4,5 C 37,0 km/h (5 Bft) 98 %
03.12.2020 23:56 4,3 C 89 % 984,6 hPa 0,0 l/m 0 min 0 min 0,000 mm 0,0 UV-I 0 W/m 2,7 C -3,3 C 32,2 km/h (5 Bft) 100 %
03.12.2020 23:54 4,3 C 89 % 984,7 hPa 0,0 l/m 0 min 0 min 0,000 mm 0,0 UV-I 0 W/m 2,7 C -2,3 C 25,7 km/h (4 Bft) 100 %
03.12.2020 23:52 4,3 C 89 % 984,8 hPa 0,0 l/m 0 min 0 min 0,000 mm 0,0 UV-I 0 W/m 2,7 C -3,8 C 27,4 km/h (4 Bft) 100 %
03.12.2020 23:50 4,4 C 89 % 984,8 hPa 0,0 l/m 0 min 0 min 0,000 mm 0,0 UV-I 0 W/m 2,7 C -2,0 C 24,1 km/h (4 Bft) 100 %
03.12.2020 23:48 4,4 C 89 % 984,9 hPa 0,0 l/m 0 min 0 min 0,000 mm 0,0 UV-I 0 W/m 2,7 C -1,2 C 22,5 km/h (4 Bft) 100 %
03.12.2020 23:46 4,4 C 89 % 984,8 hPa 0,0 l/m 0 min 0 min 0,000 mm 0,0 UV-I 0 W/m 2,7 C -3,1 C 29,0 km/h (5 Bft) 100 %
03.12.2020 23:44 4,4 C 89 % 984,9 hPa 0,0 l/m 0 min 0 min 0,000 mm 0,0 UV-I 0 W/m 2,7 C -3,0 C 37,0 km/h (5 Bft) 98 %
03.12.2020 23:42 4,4 C 89 % 985,0 hPa 0,0 l/m 0 min 0 min 0,000 mm 0,0 UV-I 0 W/m 2,7 C -4,0 C 29,0 km/h (5 Bft) 100 %
03.12.2020 23:40 4,5 C 89 % 985,0 hPa 0,0 l/m 0 min 0 min 0,000 mm 0,0 UV-I 0 W/m 2,8 C -2,6 C 38,6 km/h (5 Bft) 100 %
03.12.2020 23:38 4,5 C 89 % 985,1 hPa 0,0 l/m 0 min 0 min 0,000 mm 0,0 UV-I 0 W/m 2,8 C -4,4 C 32,2 km/h (5 Bft) 100 %
03.12.2020 23:36 4,5 C 89 % 985,1 hPa 0,0 l/m 0 min 0 min 0,000 mm 0,0 UV-I 0 W/m 2,8 C -2,8 C 29,0 km/h (5 Bft) 98 %
03.12.2020 23:34 4,5 C 89 % 985,2 hPa 0,0 l/m 0 min 0 min 0,000 mm 0,0 UV-I 0 W/m 2,8 C -3,1 C 30,6 km/h (5 Bft) 100 %
03.12.2020 23:32 4,5 C 89 % 985,2 hPa 0,0 l/m 0 min 0 min 0,000 mm 0,0 UV-I 0 W/m 2,8 C -3,9 C 33,8 km/h (5 Bft) 100 %
03.12.2020 23:30 4,6 C 89 % 985,2 hPa 0,0 l/m 0 min 0 min 0,000 mm 0,0 UV-I 0 W/m 2,9 C -3,8 C 33,8 km/h (5 Bft) 100 %
03.12.2020 23:28 4,6 C 89 % 985,2 hPa 0,0 l/m 0 min 0 min 0,000 mm 0,0 UV-I 0 W/m 2,9 C -5,2 C 33,8 km/h (5 Bft) 98 %
03.12.2020 23:26 4,6 C 89 % 985,2 hPa 0,0 l/m 0 min 0 min 0,000 mm 0,0 UV-I 0 W/m 2,9 C -3,3 C 32,2 km/h (5 Bft) 98 %
03.12.2020 23:24 4,6 C 89 % 985,5 hPa 0,0 l/m 0 min 0 min 0,000 mm 0,0 UV-I 0 W/m 2,9 C -2,8 C 24,1 km/h (4 Bft) 98 %
03.12.2020 23:22 4,6 C 89 % 985,4 hPa 0,0 l/m 0 min 0 min 0,000 mm 0,0 UV-I 0 W/m 2,9 C -4,3 C 32,2 km/h (5 Bft) 98 %
03.12.2020 23:20 4,7 C 89 % 985,5 hPa 0,0 l/m 0 min 0 min 0,000 mm 0,0 UV-I 0 W/m 3,0 C -4,7 C 37,0 km/h (5 Bft) 98 %
03.12.2020 23:18 4,6 C 89 % 985,3 hPa 0,0 l/m 0 min 0 min 0,000 mm 0,0 UV-I 0 W/m 2,9 C -4,2 C 35,4 km/h (5 Bft) 93 %
03.12.2020 23:16 4,7 C 89 % 985,4 hPa 0,0 l/m 0 min 0 min 0,000 mm 0,0 UV-I 0 W/m 3,0 C -3,6 C 32,2 km/h (5 Bft) 96 %
03.12.2020 23:14 4,7 C 89 % 985,5 hPa 0,0 l/m 0 min 0 min 0,000 mm 0,0 UV-I 0 W/m 3,0 C -4,1 C 32,2 km/h (5 Bft) 94 %
03.12.2020 23:12 4,7 C 89 % 985,6 hPa 0,0 l/m 0 min 0 min 0,000 mm 0,0 UV-I 0 W/m 3,0 C -2,7 C 25,7 km/h (4 Bft) 96 %
03.12.2020 23:10 4,7 C 89 % 985,5 hPa 0,0 l/m 0 min 0 min 0,000 mm 0,0 UV-I 0 W/m 3,0 C -5,3 C 37,0 km/h (5 Bft) 93 %
03.12.2020 23:08 4,7 C 89 % 985,7 hPa 0,0 l/m 0 min 0 min 0,000 mm 0,0 UV-I 0 W/m 3,0 C -4,7 C 35,4 km/h (5 Bft) 94 %
03.12.2020 23:06 4,7 C 89 % 985,6 hPa 0,0 l/m 0 min 0 min 0,000 mm 0,0 UV-I 0 W/m 3,0 C -4,6 C 35,4 km/h (5 Bft) 96 %
03.12.2020 23:04 4,7 C 89 % 985,6 hPa 0,0 l/m 0 min 0 min 0,025 mm 0,0 UV-I 0 W/m 3,0 C -2,8 C 25,7 km/h (4 Bft) 93 %
03.12.2020 23:00 4,7 C 89 % 985,6 hPa 0,0 l/m 0 min 0 min 0,000 mm 0,0 UV-I 0 W/m 3,0 C -3,2 C 32,2 km/h (5 Bft) 91 %
03.12.2020 22:58 4,7 C 89 % 985,7 hPa 0,0 l/m 0 min 0 min 0,000 mm 0,0 UV-I 0 W/m 3,0 C -4,3 C 35,4 km/h (5 Bft) 91 %
03.12.2020 22:56 4,7 C 89 % 985,7 hPa 0,0 l/m 0 min 0 min 0,000 mm 0,0 UV-I 0 W/m 3,0 C -4,6 C 32,2 km/h (5 Bft) 91 %
03.12.2020 22:54 4,7 C 89 % 985,8 hPa 0,0 l/m 0 min 0 min 0,000 mm 0,0 UV-I 0 W/m 3,0 C -3,6 C 30,6 km/h (5 Bft) 96 %
03.12.2020 22:52 4,7 C 89 % 985,8 hPa 0,0 l/m 0 min 0 min 0,000 mm 0,0 UV-I 0 W/m 3,0 C -4,0 C 35,4 km/h (5 Bft) 94 %
03.12.2020 22:50 4,7 C 89 % 985,9 hPa 0,0 l/m 0 min 0 min 0,000 mm 0,0 UV-I 0 W/m 3,0 C -3,8 C 35,4 km/h (5 Bft) 96 %
03.12.2020 22:48 4,7 C 89 % 985,9 hPa 0,0 l/m 0 min 0 min 0,000 mm 0,0 UV-I 0 W/m 3,0 C -2,7 C 37,0 km/h (5 Bft) 94 %
03.12.2020 22:46 4,8 C 88 % 985,9 hPa 0,0 l/m 0 min 0 min 0,000 mm 0,0 UV-I 0 W/m 3,0 C -3,2 C 29,0 km/h (5 Bft) 96 %
03.12.2020 22:44 4,8 C 88 % 985,9 hPa 0,0 l/m 0 min 0 min 0,000 mm 0,0 UV-I 0 W/m 3,0 C -3,2 C 32,2 km/h (5 Bft) 98 %
03.12.2020 22:42 4,8 C 88 % 985,9 hPa 0,0 l/m 0 min 0 min 0,000 mm 0,0 UV-I 0 W/m 3,0 C -4,7 C 33,8 km/h (5 Bft) 96 %
03.12.2020 22:40 4,8 C 88 % 985,9 hPa 0,0 l/m 0 min 0 min 0,000 mm 0,0 UV-I 0 W/m 3,0 C -4,4 C 32,2 km/h (5 Bft) 92 %
03.12.2020 22:38 4,8 C 88 % 986,0 hPa 0,0 l/m 0 min 0 min 0,000 mm 0,0 UV-I 0 W/m 3,0 C -3,0 C 29,0 km/h (5 Bft) 91 %
03.12.2020 22:36 4,8 C 88 % 986,0 hPa 0,0 l/m 0 min 0 min 0,000 mm 0,0 UV-I 0 W/m 3,0 C -3,6 C 32,2 km/h (5 Bft) 96 %
03.12.2020 22:34 4,8 C 88 % 986,0 hPa 0,0 l/m 0 min 0 min 0,000 mm 0,0 UV-I 0 W/m 3,0 C -4,1 C 37,0 km/h (5 Bft) 98 %
03.12.2020 22:32 4,8 C 88 % 985,9 hPa 0,0 l/m 0 min 0 min 0,000 mm 0,0 UV-I 0 W/m 3,0 C -6,4 C 43,5 km/h (6 Bft) 98 %
03.12.2020 22:30 4,8 C 88 % 986,1 hPa 0,0 l/m 0 min 0 min 0,000 mm 0,0 UV-I 0 W/m 3,0 C -2,2 C 25,7 km/h (4 Bft) 96 %
03.12.2020 22:28 4,8 C 88 % 986,1 hPa 0,0 l/m 0 min 0 min 0,000 mm 0,0 UV-I 0 W/m 3,0 C -2,6 C 30,6 km/h (5 Bft) 98 %
03.12.2020 22:26 4,8 C 88 % 986,1 hPa 0,0 l/m 0 min 0 min 0,000 mm 0,0 UV-I 0 W/m 3,0 C -4,3 C 38,6 km/h (5 Bft) 96 %
03.12.2020 22:24 4,8 C 88 % 986,2 hPa 0,0 l/m 0 min 0 min 0,000 mm 0,0 UV-I 0 W/m 3,0 C -4,0 C 43,5 km/h (6 Bft) 98 %
03.12.2020 22:22 4,8 C 88 % 986,1 hPa 0,0 l/m 0 min 0 min 0,000 mm 0,0 UV-I 0 W/m 3,0 C -3,5 C 37,0 km/h (5 Bft) 98 %
03.12.2020 22:20 4,9 C 87 % 986,2 hPa 0,0 l/m 0 min 0 min 0,000 mm 0,0 UV-I 0 W/m 2,9 C -4,1 C 33,8 km/h (5 Bft) 98 %
03.12.2020 22:18 4,9 C 88 % 986,1 hPa 0,0 l/m 0 min 0 min 0,000 mm 0,0 UV-I 0 W/m 3,1 C -5,2 C 40,2 km/h (6 Bft) 98 %
03.12.2020 22:16 4,9 C 87 % 986,2 hPa 0,0 l/m 0 min 0 min 0,000 mm 0,0 UV-I 0 W/m 2,9 C -4,2 C 32,2 km/h (5 Bft) 98 %
03.12.2020 22:14 4,9 C 87 % 986,2 hPa 0,0 l/m 0 min 0 min 0,000 mm 0,0 UV-I 0 W/m 2,9 C -5,5 C 37,0 km/h (5 Bft) 98 %
03.12.2020 22:12 4,9 C 87 % 986,1 hPa 0,0 l/m 0 min 0 min 0,000 mm 0,0 UV-I 0 W/m 2,9 C -6,0 C 48,3 km/h (6 Bft) 100 %
03.12.2020 22:10 4,9 C 87 % 986,1 hPa 0,0 l/m 0 min 0 min 0,000 mm 0,0 UV-I 0 W/m 2,9 C -4,7 C 35,4 km/h (5 Bft) 98 %
03.12.2020 22:08 4,9 C 87 % 986,2 hPa 0,0 l/m 0 min 0 min 0,000 mm 0,0 UV-I 0 W/m 2,9 C -6,0 C 43,5 km/h (6 Bft) 98 %
03.12.2020 22:06 4,9 C 87 % 986,2 hPa 0,0 l/m 0 min 0 min 0,000 mm 0,0 UV-I 0 W/m 2,9 C -5,1 C 45,1 km/h (6 Bft) 98 %
03.12.2020 22:04 4,9 C 87 % 986,3 hPa 0,0 l/m 0 min 0 min 0,025 mm 0,0 UV-I 0 W/m 2,9 C -4,4 C 37,0 km/h (5 Bft) 95 %
03.12.2020 22:00 4,9 C 87 % 986,3 hPa 0,0 l/m 0 min 0 min 0,000 mm 0,0 UV-I 0 W/m 2,9 C -5,3 C 35,4 km/h (5 Bft) 98 %
03.12.2020 21:58 4,9 C 87 % 986,3 hPa 0,0 l/m 0 min 0 min 0,000 mm 0,0 UV-I 0 W/m 2,9 C -3,8 C 38,6 km/h (5 Bft) 96 %
03.12.2020 21:56 4,9 C 87 % 986,4 hPa 0,0 l/m 0 min 0 min 0,000 mm 0,0 UV-I 0 W/m 2,9 C -3,8 C 33,8 km/h (5 Bft) 100 %
03.12.2020 21:54 4,9 C 87 % 986,5 hPa 0,0 l/m 0 min 0 min 0,000 mm 0,0 UV-I 0 W/m 2,9 C -6,1 C 41,8 km/h (6 Bft) 100 %
03.12.2020 21:52 4,9 C 87 % 986,4 hPa 0,0 l/m 0 min 0 min 0,000 mm 0,0 UV-I 0 W/m 2,9 C -5,9 C 46,7 km/h (6 Bft) 100 %
03.12.2020 21:50 4,9 C 87 % 986,5 hPa 0,0 l/m 0 min 0 min 0,000 mm 0,0 UV-I 0 W/m 2,9 C -6,7 C 46,7 km/h (6 Bft) 98 %
03.12.2020 21:48 4,9 C 87 % 986,6 hPa 0,0 l/m 0 min 0 min 0,000 mm 0,0 UV-I 0 W/m 2,9 C -6,1 C 43,5 km/h (6 Bft) 96 %
03.12.2020 21:46 4,9 C 87 % 986,7 hPa 0,0 l/m 0 min 0 min 0,000 mm 0,0 UV-I 0 W/m 2,9 C -4,5 C 32,2 km/h (5 Bft) 98 %
03.12.2020 21:44 4,9 C 87 % 986,7 hPa 0,0 l/m 0 min 0 min 0,000 mm 0,0 UV-I 0 W/m 2,9 C -4,4 C 40,2 km/h (6 Bft) 98 %
03.12.2020 21:42 4,9 C 87 % 986,8 hPa 0,0 l/m 0 min 0 min 0,000 mm 0,0 UV-I 0 W/m 2,9 C -6,5 C 51,5 km/h (7 Bft) 96 %
03.12.2020 21:40 4,9 C 87 % 986,7 hPa 0,0 l/m 0 min 0 min 0,000 mm 0,0 UV-I 0 W/m 2,9 C -6,7 C 43,5 km/h (6 Bft) 96 %
03.12.2020 21:38 4,9 C 87 % 986,8 hPa 0,0 l/m 0 min 0 min 0,000 mm 0,0 UV-I 0 W/m 2,9 C -5,7 C 38,6 km/h (5 Bft) 98 %
03.12.2020 21:36 4,9 C 88 % 986,7 hPa 0,0 l/m 0 min 0 min 0,000 mm 0,0 UV-I 0 W/m 3,1 C -5,5 C 38,6 km/h (5 Bft) 98 %
03.12.2020 21:34 4,9 C 88 % 986,8 hPa 0,0 l/m 0 min 0 min 0,000 mm 0,0 UV-I 0 W/m 3,1 C -5,9 C 49,9 km/h (6 Bft) 98 %
03.12.2020 21:32 4,8 C 88 % 986,9 hPa 0,0 l/m 0 min 0 min 0,000 mm 0,0 UV-I 0 W/m 3,0 C -4,2 C 32,2 km/h (5 Bft) 96 %
03.12.2020 21:30 4,8 C 88 % 987,0 hPa 0,0 l/m 0 min 0 min 0,000 mm 0,0 UV-I 0 W/m 3,0 C -3,5 C 29,0 km/h (5 Bft) 98 %
03.12.2020 21:28 4,8 C 88 % 987,0 hPa 0,0 l/m 0 min 0 min 0,000 mm 0,0 UV-I 0 W/m 3,0 C -5,6 C 40,2 km/h (6 Bft) 96 %
03.12.2020 21:26 4,8 C 88 % 987,1 hPa 0,0 l/m 0 min 0 min 0,000 mm 0,0 UV-I 0 W/m 3,0 C -2,4 C 29,0 km/h (5 Bft) 94 %
03.12.2020 21:24 4,8 C 88 % 987,1 hPa 0,0 l/m 0 min 0 min 0,000 mm 0,0 UV-I 0 W/m 3,0 C -3,9 C 40,2 km/h (6 Bft) 98 %
03.12.2020 21:22 4,8 C 88 % 987,1 hPa 0,0 l/m 0 min 0 min 0,000 mm 0,0 UV-I 0 W/m 3,0 C -5,4 C 41,8 km/h (6 Bft) 98 %
03.12.2020 21:20 4,9 C 88 % 987,2 hPa 0,0 l/m 0 min 0 min 0,000 mm 0,0 UV-I 0 W/m 3,1 C -3,3 C 30,6 km/h (5 Bft) 100 %
03.12.2020 21:18 4,9 C 88 % 987,4 hPa 0,0 l/m 0 min 0 min 0,000 mm 0,0 UV-I 0 W/m 3,1 C -5,2 C 38,6 km/h (5 Bft) 100 %
03.12.2020 21:16 4,9 C 88 % 987,3 hPa 0,0 l/m 0 min 0 min 0,000 mm 0,0 UV-I 0 W/m 3,1 C -4,7 C 37,0 km/h (5 Bft) 94 %
03.12.2020 21:14 4,9 C 87 % 987,4 hPa 0,0 l/m 0 min 0 min 0,000 mm 0,0 UV-I 0 W/m 2,9 C -3,5 C 33,8 km/h (5 Bft) 98 %
03.12.2020 21:12 4,9 C 88 % 987,4 hPa 0,0 l/m 0 min 0 min 0,000 mm 0,0 UV-I 0 W/m 3,1 C -5,1 C 38,6 km/h (5 Bft) 96 %
03.12.2020 21:10 4,9 C 88 % 987,4 hPa 0,0 l/m 0 min 0 min 0,000 mm 0,0 UV-I 0 W/m 3,1 C -5,3 C 38,6 km/h (5 Bft) 98 %
03.12.2020 21:08 4,9 C 88 % 987,4 hPa 0,0 l/m 0 min 0 min 0,000 mm 0,0 UV-I 0 W/m 3,1 C -6,0 C 40,2 km/h (6 Bft) 98 %
03.12.2020 21:06 4,9 C 88 % 987,4 hPa 0,0 l/m 0 min 0 min 0,000 mm 0,0 UV-I 0 W/m 3,1 C -5,8 C 43,5 km/h (6 Bft) 96 %
03.12.2020 21:04 4,9 C 88 % 987,6 hPa 0,0 l/m 0 min 0 min 0,026 mm 0,0 UV-I 0 W/m 3,1 C -4,2 C 41,8 km/h (6 Bft) 95 %
03.12.2020 21:00 4,9 C 88 % 987,5 hPa 0,0 l/m 0 min 0 min 0,000 mm 0,0 UV-I 0 W/m 3,1 C -4,1 C 33,8 km/h (5 Bft) 96 %
03.12.2020 20:58 4,9 C 88 % 987,6 hPa 0,0 l/m 0 min 0 min 0,000 mm 0,0 UV-I 0 W/m 3,1 C -4,9 C 40,2 km/h (6 Bft) 100 %
03.12.2020 20:56 4,9 C 88 % 987,6 hPa 0,0 l/m 0 min 0 min 0,000 mm 0,0 UV-I 0 W/m 3,1 C -3,6 C 35,4 km/h (5 Bft) 95 %
03.12.2020 20:54 4,9 C 88 % 987,7 hPa 0,0 l/m 0 min 0 min 0,000 mm 0,0 UV-I 0 W/m 3,1 C -3,6 C 35,4 km/h (5 Bft) 98 %
03.12.2020 20:52 4,9 C 88 % 987,8 hPa 0,0 l/m 0 min 0 min 0,000 mm 0,0 UV-I 0 W/m 3,1 C -5,0 C 40,2 km/h (6 Bft) 98 %
03.12.2020 20:50 4,9 C 88 % 987,7 hPa 0,0 l/m 0 min 0 min 0,000 mm 0,0 UV-I 0 W/m 3,1 C -4,3 C 37,0 km/h (5 Bft) 96 %
03.12.2020 20:48 4,9 C 88 % 987,8 hPa 0,0 l/m 0 min 0 min 0,000 mm 0,0 UV-I 0 W/m 3,1 C -3,5 C 32,2 km/h (5 Bft) 98 %
03.12.2020 20:46 4,9 C 88 % 987,8 hPa 0,0 l/m 0 min 0 min 0,000 mm 0,0 UV-I 0 W/m 3,1 C -4,4 C 35,4 km/h (5 Bft) 98 %
03.12.2020 20:44 4,9 C 88 % 987,8 hPa 0,0 l/m 0 min 0 min 0,000 mm 0,0 UV-I 0 W/m 3,1 C -5,1 C 40,2 km/h (6 Bft) 100 %
03.12.2020 20:42 4,9 C 88 % 987,9 hPa 0,0 l/m 0 min 0 min 0,000 mm 0,0 UV-I 0 W/m 3,1 C -4,3 C 37,0 km/h (5 Bft) 100 %
03.12.2020 20:40 4,9 C 88 % 988,0 hPa 0,0 l/m 0 min 0 min 0,000 mm 0,0 UV-I 0 W/m 3,1 C -5,4 C 37,0 km/h (5 Bft) 98 %
03.12.2020 20:38 4,9 C 88 % 988,0 hPa 0,0 l/m 0 min 0 min 0,000 mm 0,0 UV-I 0 W/m 3,1 C -4,5 C 40,2 km/h (6 Bft) 97 %
03.12.2020 20:36 4,9 C 88 % 988,2 hPa 0,0 l/m 0 min 0 min 0,000 mm 0,0 UV-I 0 W/m 3,1 C -1,8 C 30,6 km/h (5 Bft) 100 %
03.12.2020 20:34 4,9 C 88 % 988,3 hPa 0,0 l/m 0 min 0 min 0,000 mm 0,0 UV-I 0 W/m 3,1 C -4,6 C 33,8 km/h (5 Bft) 100 %
03.12.2020 20:32 4,9 C 88 % 988,3 hPa 0,0 l/m 0 min 0 min 0,000 mm 0,0 UV-I 0 W/m 3,1 C -2,0 C 27,4 km/h (4 Bft) 96 %
03.12.2020 20:30 5,0 C 88 % 988,3 hPa 0,0 l/m 0 min 0 min 0,000 mm 0,0 UV-I 0 W/m 3,2 C -4,4 C 30,6 km/h (5 Bft) 98 %
03.12.2020 20:28 4,9 C 89 % 988,2 hPa 0,0 l/m 0 min 0 min 0,000 mm 0,0 UV-I 0 W/m 3,2 C -5,7 C 37,0 km/h (5 Bft) 98 %
03.12.2020 20:26 4,9 C 89 % 988,4 hPa 0,0 l/m 0 min 0 min 0,000 mm 0,0 UV-I 0 W/m 3,2 C -3,9 C 35,4 km/h (5 Bft) 100 %
03.12.2020 20:24 4,9 C 89 % 988,3 hPa 0,0 l/m 0 min 0 min 0,000 mm 0,0 UV-I 0 W/m 3,2 C -3,2 C 32,2 km/h (5 Bft) 93 %
03.12.2020 20:22 4,9 C 89 % 988,4 hPa 0,0 l/m 0 min 0 min 0,000 mm 0,0 UV-I 0 W/m 3,2 C -3,3 C 27,4 km/h (4 Bft) 95 %
03.12.2020 20:20 4,9 C 89 % 988,5 hPa 0,0 l/m 0 min 0 min 0,000 mm 0,0 UV-I 0 W/m 3,2 C -3,6 C 38,6 km/h (5 Bft) 98 %
03.12.2020 20:18 4,9 C 89 % 988,5 hPa 0,0 l/m 0 min 0 min 0,000 mm 0,0 UV-I 0 W/m 3,2 C -3,8 C 30,6 km/h (5 Bft) 98 %
03.12.2020 20:16 4,9 C 90 % 988,6 hPa 0,0 l/m 0 min 0 min 0,000 mm 0,0 UV-I 0 W/m 3,4 C -4,4 C 41,8 km/h (6 Bft) 98 %
03.12.2020 20:14 4,8 C 89 % 988,7 hPa 0,0 l/m 0 min 0 min 0,000 mm 0,0 UV-I 0 W/m 3,1 C -4,5 C 35,4 km/h (5 Bft) 98 %
03.12.2020 20:12 4,8 C 90 % 988,6 hPa 0,0 l/m 0 min 0 min 0,000 mm 0,0 UV-I 0 W/m 3,3 C -3,5 C 35,4 km/h (5 Bft) 98 %
03.12.2020 20:10 4,8 C 90 % 988,7 hPa 0,0 l/m 0 min 0 min 0,000 mm 0,0 UV-I 0 W/m 3,3 C -2,9 C 27,4 km/h (4 Bft) 97 %
03.12.2020 20:08 4,8 C 90 % 988,7 hPa 0,0 l/m 0 min 0 min 0,000 mm 0,0 UV-I 0 W/m 3,3 C -3,9 C 30,6 km/h (5 Bft) 96 %
03.12.2020 20:06 4,8 C 90 % 988,8 hPa 0,0 l/m 0 min 0 min 0,000 mm 0,0 UV-I 0 W/m 3,3 C -2,3 C 29,0 km/h (5 Bft) 98 %
03.12.2020 20:04 4,8 C 90 % 988,8 hPa 0,0 l/m 0 min 0 min 0,025 mm 0,0 UV-I 0 W/m 3,3 C -2,0 C 35,4 km/h (5 Bft) 98 %
03.12.2020 20:00 4,8 C 90 % 988,8 hPa 0,0 l/m 0 min 0 min 0,000 mm 0,0 UV-I 0 W/m 3,3 C -2,1 C 27,4 km/h (4 Bft) 100 %
03.12.2020 19:58 4,8 C 90 % 988,8 hPa 0,0 l/m 0 min 0 min 0,000 mm 0,0 UV-I 0 W/m 3,3 C -4,1 C 33,8 km/h (5 Bft) 100 %
03.12.2020 19:56 4,8 C 90 % 988,9 hPa 0,0 l/m 0 min 0 min 0,000 mm 0,0 UV-I 0 W/m 3,3 C -2,9 C 30,6 km/h (5 Bft) 100 %
03.12.2020 19:54 4,8 C 90 % 989,0 hPa 0,0 l/m 0 min 0 min 0,000 mm 0,0 UV-I 0 W/m 3,3 C -3,5 C 27,4 km/h (4 Bft) 98 %
03.12.2020 19:52 4,8 C 90 % 989,1 hPa 0,0 l/m 0 min 0 min 0,000 mm 0,0 UV-I 0 W/m 3,3 C -2,8 C 27,4 km/h (4 Bft) 100 %
03.12.2020 19:50 4,8 C 91 % 989,0 hPa 0,0 l/m 0 min 0 min 0,000 mm 0,0 UV-I 0 W/m 3,5 C -3,9 C 33,8 km/h (5 Bft) 100 %
03.12.2020 19:48 4,8 C 91 % 989,2 hPa 0,0 l/m 0 min 0 min 0,000 mm 0,0 UV-I 0 W/m 3,5 C -4,0 C 38,6 km/h (5 Bft) 100 %
03.12.2020 19:46 4,7 C 90 % 989,3 hPa 0,0 l/m 0 min 0 min 0,000 mm 0,0 UV-I 0 W/m 3,2 C -4,3 C 38,6 km/h (5 Bft) 100 %
03.12.2020 19:44 4,7 C 91 % 989,3 hPa 0,0 l/m 0 min 0 min 0,000 mm 0,0 UV-I 0 W/m 3,4 C -2,9 C 29,0 km/h (5 Bft) 98 %
03.12.2020 19:42 4,7 C 90 % 989,3 hPa 0,0 l/m 0 min 0 min 0,000 mm 0,0 UV-I 0 W/m 3,2 C -3,5 C 30,6 km/h (5 Bft) 100 %
03.12.2020 19:40 4,7 C 90 % 989,4 hPa 0,0 l/m 0 min 0 min 0,000 mm 0,0 UV-I 0 W/m 3,2 C -4,4 C 32,2 km/h (5 Bft) 98 %
03.12.2020 19:38 4,7 C 91 % 989,5 hPa 0,0 l/m 0 min 0 min 0,000 mm 0,0 UV-I 0 W/m 3,4 C -3,0 C 27,4 km/h (4 Bft) 98 %
03.12.2020 19:36 4,7 C 90 % 989,5 hPa 0,0 l/m 0 min 0 min 0,000 mm 0,0 UV-I 0 W/m 3,2 C -3,7 C 30,6 km/h (5 Bft) 98 %
03.12.2020 19:34 4,7 C 90 % 989,6 hPa 0,0 l/m 0 min 0 min 0,000 mm 0,0 UV-I 0 W/m 3,2 C -3,8 C 29,0 km/h (5 Bft) 98 %
03.12.2020 19:32 4,7 C 90 % 989,6 hPa 0,0 l/m 0 min 0 min 0,000 mm 0,0 UV-I 0 W/m 3,2 C -3,3 C 29,0 km/h (5 Bft) 100 %
03.12.2020 19:30 4,7 C 90 % 989,6 hPa 0,0 l/m 0 min 0 min 0,000 mm 0,0 UV-I 0 W/m 3,2 C -3,3 C 30,6 km/h (5 Bft) 97 %
03.12.2020 19:28 4,7 C 90 % 989,8 hPa 0,0 l/m 0 min 0 min 0,000 mm 0,0 UV-I 0 W/m 3,2 C -2,5 C 25,7 km/h (4 Bft) 98 %
03.12.2020 19:26 4,7 C 90 % 989,8 hPa 0,0 l/m 0 min 0 min 0,000 mm 0,0 UV-I 0 W/m 3,2 C -3,7 C 33,8 km/h (5 Bft) 98 %
03.12.2020 19:24 4,7 C 90 % 989,8 hPa 0,0 l/m 0 min 0 min 0,000 mm 0,0 UV-I 0 W/m 3,2 C -2,5 C 29,0 km/h (5 Bft) 98 %
03.12.2020 19:22 4,8 C 90 % 989,8 hPa 0,0 l/m 0 min 0 min 0,000 mm 0,0 UV-I 0 W/m 3,3 C -3,6 C 30,6 km/h (5 Bft) 100 %
03.12.2020 19:20 4,7 C 90 % 989,8 hPa 0,0 l/m 0 min 0 min 0,000 mm 0,0 UV-I 0 W/m 3,2 C -3,5 C 35,4 km/h (5 Bft) 98 %
03.12.2020 19:18 4,8 C 90 % 989,8 hPa 0,0 l/m 0 min 0 min 0,000 mm 0,0 UV-I 0 W/m 3,3 C -2,2 C 29,0 km/h (5 Bft) 96 %
03.12.2020 19:16 4,8 C 90 % 990,0 hPa 0,0 l/m 0 min 0 min 0,000 mm 0,0 UV-I 0 W/m 3,3 C -2,6 C 29,0 km/h (5 Bft) 98 %
03.12.2020 19:14 4,8 C 90 % 989,9 hPa 0,0 l/m 0 min 0 min 0,000 mm 0,0 UV-I 0 W/m 3,3 C -2,8 C 30,6 km/h (5 Bft) 98 %
03.12.2020 19:12 4,8 C 90 % 990,0 hPa 0,0 l/m 0 min 0 min 0,000 mm 0,0 UV-I 0 W/m 3,3 C -3,0 C 29,0 km/h (5 Bft) 94 %
03.12.2020 19:10 4,8 C 89 % 990,0 hPa 0,0 l/m 0 min 0 min 0,000 mm 0,0 UV-I 0 W/m 3,1 C -1,3 C 22,5 km/h (4 Bft) 98 %
03.12.2020 19:08 4,8 C 89 % 990,0 hPa 0,0 l/m 0 min 0 min 0,000 mm 0,0 UV-I 0 W/m 3,1 C -2,5 C 25,7 km/h (4 Bft) 98 %
03.12.2020 19:06 4,8 C 89 % 990,0 hPa 0,0 l/m 0 min 0 min 0,000 mm 0,0 UV-I 0 W/m 3,1 C -4,3 C 46,7 km/h (6 Bft) 95 %
03.12.2020 19:04 4,8 C 89 % 990,0 hPa 0,0 l/m 0 min 0 min 0,026 mm 0,0 UV-I 0 W/m 3,1 C -4,4 C 40,2 km/h (6 Bft) 95 %
03.12.2020 19:00 4,8 C 89 % 990,1 hPa 0,0 l/m 0 min 0 min 0,000 mm 0,0 UV-I 0 W/m 3,1 C -4,4 C 37,0 km/h (5 Bft) 96 %
03.12.2020 18:58 4,8 C 89 % 990,1 hPa 0,0 l/m 0 min 0 min 0,000 mm 0,0 UV-I 0 W/m 3,1 C -3,0 C 27,4 km/h (4 Bft) 95 %
03.12.2020 18:56 4,8 C 89 % 990,2 hPa 0,0 l/m 0 min 0 min 0,000 mm 0,0 UV-I 0 W/m 3,1 C -2,7 C 24,1 km/h (4 Bft) 98 %
03.12.2020 18:54 4,8 C 89 % 990,2 hPa 0,0 l/m 0 min 0 min 0,000 mm 0,0 UV-I 0 W/m 3,1 C -4,7 C 40,2 km/h (6 Bft) 98 %
03.12.2020 18:52 4,8 C 90 % 990,2 hPa 0,0 l/m 0 min 0 min 0,000 mm 0,0 UV-I 0 W/m 3,3 C -5,6 C 37,0 km/h (5 Bft) 98 %
03.12.2020 18:50 4,7 C 90 % 990,2 hPa 0,0 l/m 0 min 0 min 0,000 mm 0,0 UV-I 0 W/m 3,2 C -2,8 C 35,4 km/h (5 Bft) 96 %
03.12.2020 18:48 4,7 C 90 % 990,3 hPa 0,0 l/m 0 min 0 min 0,000 mm 0,0 UV-I 0 W/m 3,2 C -2,6 C 25,7 km/h (4 Bft) 94 %
03.12.2020 18:46 4,7 C 90 % 990,3 hPa 0,0 l/m 0 min 0 min 0,000 mm 0,0 UV-I 0 W/m 3,2 C -5,0 C 35,4 km/h (5 Bft) 100 %
03.12.2020 18:44 4,7 C 90 % 990,5 hPa 0,0 l/m 0 min 0 min 0,000 mm 0,0 UV-I 0 W/m 3,2 C -2,8 C 29,0 km/h (5 Bft) 98 %
03.12.2020 18:42 4,7 C 90 % 990,5 hPa 0,0 l/m 0 min 0 min 0,000 mm 0,0 UV-I 0 W/m 3,2 C -2,8 C 30,6 km/h (5 Bft) 98 %
03.12.2020 18:40 4,6 C 90 % 990,6 hPa 0,0 l/m 0 min 0 min 0,000 mm 0,0 UV-I 0 W/m 3,1 C -4,3 C 38,6 km/h (5 Bft) 100 %
03.12.2020 18:38 4,6 C 90 % 990,7 hPa 0,0 l/m 0 min 0 min 0,000 mm 0,0 UV-I 0 W/m 3,1 C -3,7 C 35,4 km/h (5 Bft) 98 %
03.12.2020 18:36 4,6 C 90 % 990,6 hPa 0,0 l/m 0 min 0 min 0,000 mm 0,0 UV-I 0 W/m 3,1 C -3,4 C 30,6 km/h (5 Bft) 94 %
03.12.2020 18:34 4,6 C 90 % 990,7 hPa 0,0 l/m 0 min 0 min 0,000 mm 0,0 UV-I 0 W/m 3,1 C -2,3 C 24,1 km/h (4 Bft) 100 %
03.12.2020 18:32 4,6 C 90 % 990,7 hPa 0,0 l/m 0 min 0 min 0,000 mm 0,0 UV-I 0 W/m 3,1 C -2,0 C 24,1 km/h (4 Bft) 98 %
03.12.2020 18:30 4,6 C 90 % 990,8 hPa 0,0 l/m 0 min 0 min 0,000 mm 0,0 UV-I 0 W/m 3,1 C -4,0 C 35,4 km/h (5 Bft) 95 %
03.12.2020 18:28 4,6 C 90 % 990,8 hPa 0,0 l/m 0 min 0 min 0,000 mm 0,0 UV-I 0 W/m 3,1 C -4,3 C 37,0 km/h (5 Bft) 98 %
03.12.2020 18:26 4,6 C 90 % 990,9 hPa 0,0 l/m 0 min 0 min 0,000 mm 0,0 UV-I 0 W/m 3,1 C -2,4 C 27,4 km/h (4 Bft) 98 %
03.12.2020 18:24 4,6 C 90 % 990,9 hPa 0,0 l/m 0 min 0 min 0,000 mm 0,0 UV-I 0 W/m 3,1 C -3,6 C 41,8 km/h (6 Bft) 98 %
03.12.2020 18:20 4,5 C 90 % 991,0 hPa 0,0 l/m 0 min 0 min 0,000 mm 0,0 UV-I 0 W/m 3,0 C -3,4 C 25,7 km/h (4 Bft) 96 %
03.12.2020 18:18 4,5 C 90 % 991,2 hPa 0,0 l/m 0 min 0 min 0,000 mm 0,0 UV-I 0 W/m 3,0 C -2,9 C 24,1 km/h (4 Bft) 98 %
03.12.2020 18:16 4,5 C 90 % 991,2 hPa 0,0 l/m 0 min 0 min 0,000 mm 0,0 UV-I 0 W/m 3,0 C -2,0 C 24,1 km/h (4 Bft) 98 %
03.12.2020 18:12 4,6 C 90 % 991,2 hPa 0,0 l/m 0 min 0 min 0,000 mm 0,0 UV-I 0 W/m 3,1 C -4,8 C 33,8 km/h (5 Bft) 96 %
03.12.2020 18:10 4,6 C 90 % 991,3 hPa 0,0 l/m 0 min 0 min 0,000 mm 0,0 UV-I 0 W/m 3,1 C -5,7 C 43,5 km/h (6 Bft) 98 %
03.12.2020 18:08 4,5 C 90 % 991,3 hPa 0,0 l/m 0 min 0 min 0,000 mm 0,0 UV-I 0 W/m 3,0 C -5,2 C 37,0 km/h (5 Bft) 95 %
03.12.2020 18:06 4,6 C 90 % 991,4 hPa 0,0 l/m 0 min 0 min 0,000 mm 0,0 UV-I 0 W/m 3,1 C -4,1 C 30,6 km/h (5 Bft) 98 %
03.12.2020 18:04 4,6 C 90 % 991,4 hPa 0,0 l/m 0 min 0 min 0,025 mm 0,0 UV-I 0 W/m 3,1 C -3,4 C 30,6 km/h (5 Bft) 98 %
03.12.2020 18:00 4,6 C 90 % 991,4 hPa 0,0 l/m 0 min 0 min 0,000 mm 0,0 UV-I 0 W/m 3,1 C -4,8 C 51,5 km/h (7 Bft) 98 %
_ Min-Zeit 01:32 11:18 05:12 - - - - - - 00:46 21:40 16:16 16:50
Minimum _ 3,7 C 80 % 980,2 hPa - - - - - - 2,6 C -6,7 C 6,4 km/h (2 Bft) 88 %
_ Max-Zeit 13:48 03:30 18:00 18:00 09:40 02:52 11:04 11:56 12:26 07:00 14:10 18:00 18:34
Maximum _ 8,0 C 95 % 991,4 hPa 0,0 l/m 2 min 2 min 0,152 mm 1,2 UV-I 382 W/m 5,5 C 7,6 C 51,5 km/h
S-SO (7 Bft)
100 %
Durchschnitt _ 5,6 C 88 % 984,9 hPa #0,0 l/m #2:56 h #24 min. #0,813 mm 0,9 UV-I 126 W/m 3,7 C -0,5 C 27,7 km/h (4 Bft) 97 %